Wetterdaten: Freitag, 19.04.2019
Datum Zeit Temp. Aussen Temp. o. S. +5cm Feuchte Auss Luftdruck Regen Sonnenschein Regendauer Solar Windben Empfang
19.04.2019 00:00 14,2 C 12,8 C 11,7 C 59 % 1023,5 hPa 0,0 l/m 0 min 0 min 0 W/m 6,4 km/h (2 Bft) 95,74 %
19.04.2019 00:02 14,2 C 13,3 C 11,7 C 59 % 1023,5 hPa 0,0 l/m 0 min 0 min 0 W/m 6,4 km/h (2 Bft) 94,44 %
19.04.2019 00:04 14,2 C 13,3 C 11,7 C 59 % 1023,5 hPa 0,0 l/m 0 min 0 min 0 W/m 6,4 km/h (2 Bft) 95,74 %
19.04.2019 00:08 14,2 C 12,8 C 11,7 C 59 % 1023,6 hPa 0,0 l/m 0 min 0 min 0 W/m 6,4 km/h (2 Bft) 96,77 %
19.04.2019 00:10 14,1 C 12,8 C 11,7 C 59 % 1023,6 hPa 0,0 l/m 0 min 0 min 0 W/m 6,4 km/h (2 Bft) 97,87 %
19.04.2019 00:12 14,1 C 12,8 C 11,7 C 60 % 1023,6 hPa 0,0 l/m 0 min 0 min 0 W/m 6,4 km/h (2 Bft) 97,87 %
19.04.2019 00:14 14,1 C 12,8 C 11,7 C 59 % 1023,7 hPa 0,0 l/m 0 min 0 min 0 W/m 6,4 km/h (2 Bft) 95,24 %
19.04.2019 00:16 14,1 C 12,8 C 11,7 C 59 % 1023,6 hPa 0,0 l/m 0 min 0 min 0 W/m 6,4 km/h (2 Bft) 97,96 %
19.04.2019 00:18 14,0 C 12,8 C 11,7 C 59 % 1023,7 hPa 0,0 l/m 0 min 0 min 0 W/m 6,4 km/h (2 Bft) 97,87 %
19.04.2019 00:20 14,0 C 12,8 C 11,7 C 59 % 1023,7 hPa 0,0 l/m 0 min 0 min 0 W/m 6,4 km/h (2 Bft) 100,00 %
19.04.2019 00:22 13,9 C 12,2 C 11,1 C 59 % 1023,7 hPa 0,0 l/m 0 min 0 min 0 W/m 6,4 km/h (2 Bft) 100,00 %
19.04.2019 00:24 13,9 C 12,2 C 11,1 C 59 % 1023,7 hPa 0,0 l/m 0 min 0 min 0 W/m 6,4 km/h (2 Bft) 100,00 %
19.04.2019 00:26 13,9 C 12,2 C 11,1 C 59 % 1023,7 hPa 0,0 l/m 0 min 0 min 0 W/m 6,4 km/h (2 Bft) 97,87 %
19.04.2019 00:28 13,9 C 12,2 C 11,1 C 60 % 1023,7 hPa 0,0 l/m 0 min 0 min 0 W/m 6,4 km/h (2 Bft) 100,00 %
19.04.2019 00:30 13,9 C 12,2 C 11,1 C 60 % 1023,7 hPa 0,0 l/m 0 min 0 min 0 W/m 6,4 km/h (2 Bft) 100,00 %
19.04.2019 00:32 13,8 C 12,2 C 11,1 C 60 % 1023,7 hPa 0,0 l/m 0 min 0 min 0 W/m 6,4 km/h (2 Bft) 100,00 %
19.04.2019 00:34 13,8 C 12,2 C 11,1 C 60 % 1023,7 hPa 0,0 l/m 0 min 0 min 0 W/m 6,4 km/h (2 Bft) 100,00 %
19.04.2019 00:36 13,8 C 12,2 C 11,1 C 60 % 1023,7 hPa 0,0 l/m 0 min 0 min 0 W/m 6,4 km/h (2 Bft) 98,28 %
19.04.2019 00:38 13,7 C 12,2 C 11,1 C 60 % 1023,7 hPa 0,0 l/m 0 min 0 min 0 W/m 6,4 km/h (2 Bft) 100,00 %
19.04.2019 00:40 13,7 C 12,2 C 11,1 C 60 % 1023,7 hPa 0,0 l/m 0 min 0 min 0 W/m 9,7 km/h (2 Bft) 100,00 %
19.04.2019 00:42 13,7 C 12,2 C 11,1 C 60 % 1023,7 hPa 0,0 l/m 0 min 0 min 0 W/m 6,4 km/h (2 Bft) 100,00 %
19.04.2019 00:44 13,6 C 12,2 C 11,1 C 61 % 1023,7 hPa 0,0 l/m 0 min 0 min 0 W/m 6,4 km/h (2 Bft) 100,00 %
19.04.2019 00:46 13,6 C 12,2 C 11,1 C 61 % 1023,7 hPa 0,0 l/m 0 min 0 min 0 W/m 3,2 km/h (1 Bft) 100,00 %
19.04.2019 00:48 13,6 C 12,2 C 11,1 C 61 % 1023,8 hPa 0,0 l/m 0 min 0 min 0 W/m 6,4 km/h (2 Bft) 97,87 %
19.04.2019 00:50 13,6 C 12,2 C 11,1 C 60 % 1023,7 hPa 0,0 l/m 0 min 0 min 0 W/m 3,2 km/h (1 Bft) 100,00 %
19.04.2019 00:52 13,5 C 12,2 C 11,1 C 61 % 1023,7 hPa 0,0 l/m 0 min 0 min 0 W/m 3,2 km/h (1 Bft) 100,00 %
19.04.2019 00:54 13,5 C 12,2 C 11,1 C 60 % 1023,7 hPa 0,0 l/m 0 min 0 min 0 W/m 3,2 km/h (1 Bft) 100,00 %
19.04.2019 00:56 13,5 C 12,2 C 10,6 C 61 % 1023,7 hPa 0,0 l/m 0 min 0 min 0 W/m 3,2 km/h (1 Bft) 100,00 %
19.04.2019 00:58 13,4 C 11,7 C 10,6 C 60 % 1023,8 hPa 0,0 l/m 0 min 0 min 0 W/m 3,2 km/h (1 Bft) 100,00 %
19.04.2019 01:00 13,4 C 11,7 C 10,6 C 60 % 1023,8 hPa 0,0 l/m 0 min 0 min 0 W/m 3,2 km/h (1 Bft) 100,00 %
19.04.2019 01:02 13,4 C 11,7 C 10,6 C 60 % 1023,8 hPa 0,0 l/m 0 min 0 min 0 W/m 3,2 km/h (1 Bft) 100,00 %
19.04.2019 01:04 13,4 C 11,7 C 10,6 C 60 % 1023,8 hPa 0,0 l/m 0 min 0 min 0 W/m 3,2 km/h (1 Bft) 100,00 %
19.04.2019 01:06 13,3 C 11,7 C 10,6 C 61 % 1023,8 hPa 0,0 l/m 0 min 0 min 0 W/m 3,2 km/h (1 Bft) 100,00 %
19.04.2019 01:08 13,3 C 11,7 C 10,6 C 61 % 1023,8 hPa 0,0 l/m 0 min 0 min 0 W/m 3,2 km/h (1 Bft) 100,00 %
19.04.2019 01:10 13,3 C 11,7 C 10,0 C 61 % 1023,9 hPa 0,0 l/m 0 min 0 min 0 W/m 3,2 km/h (1 Bft) 100,00 %
19.04.2019 01:12 13,3 C 11,7 C 10,0 C 61 % 1023,8 hPa 0,0 l/m 0 min 0 min 0 W/m 3,2 km/h (1 Bft) 95,92 %
19.04.2019 01:14 13,2 C 11,7 C 10,0 C 61 % 1023,9 hPa 0,0 l/m 0 min 0 min 0 W/m 3,2 km/h (1 Bft) 100,00 %
19.04.2019 01:16 13,2 C 11,7 C 10,0 C 61 % 1023,9 hPa 0,0 l/m 0 min 0 min 0 W/m 0,0 km/h (0 Bft) 95,74 %
19.04.2019 01:18 13,2 C 11,7 C 10,0 C 61 % 1023,9 hPa 0,0 l/m 0 min 0 min 0 W/m 3,2 km/h (1 Bft) 97,87 %
19.04.2019 01:20 13,1 C 11,1 C 10,0 C 61 % 1023,9 hPa 0,0 l/m 0 min 0 min 0 W/m 0,0 km/h (0 Bft) 97,67 %
19.04.2019 01:22 13,1 C 11,1 C 10,0 C 61 % 1024,0 hPa 0,0 l/m 0 min 0 min 0 W/m 0,0 km/h (0 Bft) 93,75 %
19.04.2019 01:24 13,1 C 11,1 C 10,0 C 61 % 1023,9 hPa 0,0 l/m 0 min 0 min 0 W/m 0,0 km/h (0 Bft) 97,96 %
19.04.2019 01:26 13,0 C 11,1 C 10,0 C 61 % 1023,9 hPa 0,0 l/m 0 min 0 min 0 W/m 0,0 km/h (0 Bft) 97,92 %
19.04.2019 01:28 13,0 C 11,1 C 9,4 C 61 % 1023,9 hPa 0,0 l/m 0 min 0 min 0 W/m 0,0 km/h (0 Bft) 95,65 %
19.04.2019 01:30 12,9 C 10,6 C 9,4 C 61 % 1024,0 hPa 0,0 l/m 0 min 0 min 0 W/m 0,0 km/h (0 Bft) 93,62 %
19.04.2019 01:32 12,9 C 10,6 C 9,4 C 62 % 1024,0 hPa 0,0 l/m 0 min 0 min 0 W/m 0,0 km/h (0 Bft) 97,67 %
19.04.2019 01:34 12,9 C 10,6 C 9,4 C 62 % 1023,9 hPa 0,0 l/m 0 min 0 min 0 W/m 0,0 km/h (0 Bft) 93,62 %
19.04.2019 01:36 12,8 C 10,6 C 9,4 C 62 % 1023,9 hPa 0,0 l/m 0 min 0 min 0 W/m 0,0 km/h (0 Bft) 93,44 %
19.04.2019 01:38 12,8 C 10,0 C 9,4 C 62 % 1023,9 hPa 0,0 l/m 0 min 0 min 0 W/m 0,0 km/h (0 Bft) 97,22 %
19.04.2019 01:40 12,7 C 10,6 C 8,9 C 63 % 1023,9 hPa 0,0 l/m 0 min 0 min 0 W/m 0,0 km/h (0 Bft) 93,62 %
19.04.2019 01:42 12,7 C 10,0 C 8,9 C 63 % 1023,9 hPa 0,0 l/m 0 min 0 min 0 W/m 0,0 km/h (0 Bft) 91,49 %
19.04.2019 01:44 12,6 C 10,0 C 8,9 C 63 % 1023,9 hPa 0,0 l/m 0 min 0 min 0 W/m 0,0 km/h (0 Bft) 95,74 %
19.04.2019 01:46 12,6 C 10,0 C 8,9 C 63 % 1023,9 hPa 0,0 l/m 0 min 0 min 0 W/m 0,0 km/h (0 Bft) 97,56 %
19.04.2019 01:48 12,5 C 10,0 C 8,9 C 63 % 1024,0 hPa 0,0 l/m 0 min 0 min 0 W/m 0,0 km/h (0 Bft) 93,88 %
19.04.2019 01:50 12,4 C 10,0 C 8,9 C 63 % 1024,0 hPa 0,0 l/m 0 min 0 min 0 W/m 0,0 km/h (0 Bft) 95,92 %
19.04.2019 01:52 12,4 C 10,0 C 8,9 C 63 % 1023,9 hPa 0,0 l/m 0 min 0 min 0 W/m 0,0 km/h (0 Bft) 93,75 %
19.04.2019 01:54 12,3 C 10,0 C 8,9 C 63 % 1023,9 hPa 0,0 l/m 0 min 0 min 0 W/m 0,0 km/h (0 Bft) 95,74 %
19.04.2019 01:56 12,3 C 10,0 C 8,3 C 63 % 1023,9 hPa 0,0 l/m 0 min 0 min 0 W/m 0,0 km/h (0 Bft) 95,74 %
19.04.2019 01:58 12,2 C 10,0 C 8,3 C 63 % 1023,9 hPa 0,0 l/m 0 min 0 min 0 W/m 0,0 km/h (0 Bft) 92,86 %
19.04.2019 02:00 12,2 C 10,0 C 8,3 C 63 % 1023,9 hPa 0,0 l/m 0 min 0 min 0 W/m 0,0 km/h (0 Bft) 95,74 %
19.04.2019 02:02 12,1 C 10,0 C 8,3 C 63 % 1023,9 hPa 0,0 l/m 0 min 0 min 0 W/m 0,0 km/h (0 Bft) 95,74 %
19.04.2019 02:04 12,1 C 10,0 C 8,3 C 64 % 1023,8 hPa 0,0 l/m 0 min 0 min 0 W/m 0,0 km/h (0 Bft) 93,62 %
19.04.2019 02:06 12,0 C 10,0 C 8,3 C 64 % 1023,9 hPa 0,0 l/m 0 min 0 min 0 W/m 0,0 km/h (0 Bft) 98,39 %
19.04.2019 02:08 11,9 C 10,0 C 8,3 C 64 % 1023,8 hPa 0,0 l/m 0 min 0 min 0 W/m 0,0 km/h (0 Bft) 97,06 %
19.04.2019 02:10 11,9 C 10,0 C 8,3 C 64 % 1023,9 hPa 0,0 l/m 0 min 0 min 0 W/m 6,4 km/h (2 Bft) 97,87 %
19.04.2019 02:12 11,9 C 10,0 C 8,3 C 64 % 1023,9 hPa 0,0 l/m 0 min 0 min 0 W/m 0,0 km/h (0 Bft) 95,92 %
19.04.2019 02:14 11,8 C 10,0 C 8,3 C 64 % 1023,9 hPa 0,0 l/m 0 min 0 min 0 W/m 0,0 km/h (0 Bft) 97,83 %
19.04.2019 02:16 11,8 C 10,0 C 8,3 C 64 % 1023,8 hPa 0,0 l/m 0 min 0 min 0 W/m 0,0 km/h (0 Bft) 97,87 %
19.04.2019 02:18 11,7 C 10,0 C 8,3 C 65 % 1023,9 hPa 0,0 l/m 0 min 0 min 0 W/m 3,2 km/h (1 Bft) 100,00 %
19.04.2019 02:20 11,7 C 10,0 C 8,3 C 65 % 1023,9 hPa 0,0 l/m 0 min 0 min 0 W/m 0,0 km/h (0 Bft) 97,87 %
19.04.2019 02:22 11,6 C 9,4 C 8,3 C 65 % 1023,8 hPa 0,0 l/m 0 min 0 min 0 W/m 0,0 km/h (0 Bft) 97,56 %
19.04.2019 02:24 11,6 C 9,4 C 8,3 C 65 % 1023,9 hPa 0,0 l/m 0 min 0 min 0 W/m 0,0 km/h (0 Bft) 93,88 %
19.04.2019 02:26 11,5 C 9,4 C 8,3 C 65 % 1023,9 hPa 0,0 l/m 0 min 0 min 0 W/m 0,0 km/h (0 Bft) 95,92 %
19.04.2019 02:28 11,4 C 9,4 C 8,3 C 65 % 1023,9 hPa 0,0 l/m 0 min 0 min 0 W/m 0,0 km/h (0 Bft) 95,83 %
19.04.2019 02:30 11,4 C 9,4 C 7,8 C 65 % 1023,9 hPa 0,0 l/m 0 min 0 min 0 W/m 0,0 km/h (0 Bft) 97,92 %
19.04.2019 02:32 11,3 C 9,4 C 7,8 C 65 % 1023,9 hPa 0,0 l/m 0 min 0 min 0 W/m 0,0 km/h (0 Bft) 95,65 %
19.04.2019 02:34 11,3 C 9,4 C 7,8 C 65 % 1023,9 hPa 0,0 l/m 0 min 0 min 0 W/m 0,0 km/h (0 Bft) 97,87 %
19.04.2019 02:36 11,3 C 9,4 C 7,8 C 66 % 1024,0 hPa 0,0 l/m 0 min 0 min 0 W/m 0,0 km/h (0 Bft) 95,92 %
19.04.2019 02:38 11,2 C 9,4 C 7,8 C 66 % 1023,9 hPa 0,0 l/m 0 min 0 min 0 W/m 3,2 km/h (1 Bft) 93,62 %
19.04.2019 02:40 11,2 C 10,0 C 7,8 C 66 % 1023,9 hPa 0,0 l/m 0 min 0 min 0 W/m 3,2 km/h (1 Bft) 97,87 %
19.04.2019 02:42 11,2 C 10,0 C 7,8 C 66 % 1023,9 hPa 0,0 l/m 0 min 0 min 0 W/m 3,2 km/h (1 Bft) 93,62 %
19.04.2019 02:44 11,1 C 10,0 C 7,8 C 66 % 1023,9 hPa 0,0 l/m 0 min 0 min 0 W/m 3,2 km/h (1 Bft) 97,87 %
19.04.2019 02:46 11,1 C 10,0 C 7,8 C 66 % 1023,9 hPa 0,0 l/m 0 min 0 min 0 W/m 3,2 km/h (1 Bft) 95,24 %
19.04.2019 02:48 11,1 C 10,0 C 7,8 C 66 % 1023,9 hPa 0,0 l/m 0 min 0 min 0 W/m 3,2 km/h (1 Bft) 97,96 %
19.04.2019 02:50 11,0 C 10,0 C 7,8 C 66 % 1023,9 hPa 0,0 l/m 0 min 0 min 0 W/m 3,2 km/h (1 Bft) 97,96 %
19.04.2019 02:52 11,0 C 10,0 C 7,8 C 66 % 1023,9 hPa 0,0 l/m 0 min 0 min 0 W/m 0,0 km/h (0 Bft) 95,74 %
19.04.2019 02:54 11,0 C 10,0 C 7,8 C 67 % 1024,0 hPa 0,0 l/m 0 min 0 min 0 W/m 0,0 km/h (0 Bft) 97,87 %
19.04.2019 02:56 10,9 C 10,0 C 7,8 C 67 % 1023,9 hPa 0,0 l/m 0 min 0 min 0 W/m 0,0 km/h (0 Bft) 95,74 %
19.04.2019 02:58 10,9 C 10,0 C 7,8 C 67 % 1023,9 hPa 0,0 l/m 0 min 0 min 0 W/m 0,0 km/h (0 Bft) 97,56 %
19.04.2019 03:00 10,9 C 10,0 C 7,8 C 67 % 1023,9 hPa 0,0 l/m 0 min 0 min 0 W/m 0,0 km/h (0 Bft) 97,87 %
19.04.2019 03:02 10,9 C 10,0 C 8,3 C 67 % 1023,9 hPa 0,0 l/m 0 min 0 min 0 W/m 0,0 km/h (0 Bft) 97,87 %
19.04.2019 03:04 10,9 C 10,0 C 8,3 C 67 % 1023,9 hPa 0,0 l/m 0 min 0 min 0 W/m 0,0 km/h (0 Bft) 97,87 %
19.04.2019 03:06 10,8 C 10,0 C 8,3 C 67 % 1023,9 hPa 0,0 l/m 0 min 0 min 0 W/m 3,2 km/h (1 Bft) 97,83 %
19.04.2019 03:08 10,8 C 10,0 C 8,3 C 67 % 1023,9 hPa 0,0 l/m 0 min 0 min 0 W/m 0,0 km/h (0 Bft) 97,87 %
19.04.2019 03:10 10,8 C 10,6 C 8,3 C 67 % 1023,9 hPa 0,0 l/m 0 min 0 min 0 W/m 0,0 km/h (0 Bft) 95,74 %
19.04.2019 03:12 10,8 C 10,6 C 8,3 C 67 % 1023,9 hPa 0,0 l/m 0 min 0 min 0 W/m 0,0 km/h (0 Bft) 100,00 %
19.04.2019 03:14 10,8 C 10,6 C 8,9 C 67 % 1023,9 hPa 0,0 l/m 0 min 0 min 0 W/m 6,4 km/h (2 Bft) 97,87 %
19.04.2019 03:16 10,8 C 10,6 C 8,9 C 67 % 1023,9 hPa 0,0 l/m 0 min 0 min 0 W/m 6,4 km/h (2 Bft) 95,74 %
19.04.2019 03:18 10,8 C 10,6 C 8,9 C 67 % 1023,9 hPa 0,0 l/m 0 min 0 min 0 W/m 6,4 km/h (2 Bft) 97,83 %
19.04.2019 03:20 10,8 C 10,6 C 8,9 C 68 % 1023,9 hPa 0,0 l/m 0 min 0 min 0 W/m 6,4 km/h (2 Bft) 100,00 %
19.04.2019 03:22 10,8 C 10,0 C 8,9 C 68 % 1023,9 hPa 0,0 l/m 0 min 0 min 0 W/m 6,4 km/h (2 Bft) 100,00 %
19.04.2019 03:24 10,9 C 10,0 C 8,9 C 68 % 1023,9 hPa 0,0 l/m 0 min 0 min 0 W/m 3,2 km/h (1 Bft) 97,87 %
19.04.2019 03:26 10,9 C 10,0 C 8,9 C 68 % 1023,9 hPa 0,0 l/m 0 min 0 min 0 W/m 3,2 km/h (1 Bft) 93,62 %
19.04.2019 03:28 10,9 C 10,0 C 8,9 C 67 % 1023,9 hPa 0,0 l/m 0 min 0 min 0 W/m 3,2 km/h (1 Bft) 97,83 %
19.04.2019 03:30 10,9 C 10,0 C 8,3 C 67 % 1023,9 hPa 0,0 l/m 0 min 0 min 0 W/m 6,4 km/h (2 Bft) 97,87 %
19.04.2019 03:32 10,9 C 10,0 C 8,3 C 67 % 1023,9 hPa 0,0 l/m 0 min 0 min 0 W/m 6,4 km/h (2 Bft) 97,87 %
19.04.2019 03:34 10,9 C 9,4 C 8,3 C 67 % 1023,9 hPa 0,0 l/m 0 min 0 min 0 W/m 3,2 km/h (1 Bft) 95,74 %
19.04.2019 03:36 10,9 C 9,4 C 8,3 C 67 % 1023,9 hPa 0,0 l/m 0 min 0 min 0 W/m 3,2 km/h (1 Bft) 97,87 %
19.04.2019 03:38 10,9 C 10,0 C 8,3 C 67 % 1023,9 hPa 0,0 l/m 0 min 0 min 0 W/m 3,2 km/h (1 Bft) 97,87 %
19.04.2019 03:40 10,9 C 10,0 C 8,3 C 67 % 1023,9 hPa 0,0 l/m 0 min 0 min 0 W/m 3,2 km/h (1 Bft) 95,65 %
19.04.2019 03:42 10,8 C 10,0 C 8,3 C 67 % 1023,9 hPa 0,0 l/m 0 min 0 min 0 W/m 3,2 km/h (1 Bft) 97,87 %
19.04.2019 03:44 10,8 C 9,4 C 8,3 C 67 % 1024,0 hPa 0,0 l/m 0 min 0 min 0 W/m 0,0 km/h (0 Bft) 97,87 %
19.04.2019 03:46 10,8 C 9,4 C 8,3 C 67 % 1024,0 hPa 0,0 l/m 0 min 0 min 0 W/m 0,0 km/h (0 Bft) 95,74 %
19.04.2019 03:48 10,8 C 9,4 C 7,8 C 67 % 1023,9 hPa 0,0 l/m 0 min 0 min 0 W/m 0,0 km/h (0 Bft) 95,74 %
19.04.2019 03:50 10,8 C 9,4 C 7,8 C 67 % 1023,9 hPa 0,0 l/m 0 min 0 min 0 W/m 0,0 km/h (0 Bft) 95,74 %
19.04.2019 03:52 10,8 C 9,4 C 7,8 C 67 % 1024,0 hPa 0,0 l/m 0 min 0 min 0 W/m 0,0 km/h (0 Bft) 95,65 %
19.04.2019 03:54 10,8 C 8,9 C 7,8 C 67 % 1024,0 hPa 0,0 l/m 0 min 0 min 0 W/m 0,0 km/h (0 Bft) 95,74 %
19.04.2019 03:56 10,8 C 8,9 C 7,8 C 67 % 1024,0 hPa 0,0 l/m 0 min 0 min 0 W/m 0,0 km/h (0 Bft) 97,87 %
19.04.2019 03:58 10,7 C 8,3 C 7,8 C 67 % 1023,9 hPa 0,0 l/m 0 min 0 min 0 W/m 0,0 km/h (0 Bft) 100,00 %
19.04.2019 04:00 10,7 C 8,3 C 7,2 C 67 % 1023,9 hPa 0,0 l/m 0 min 0 min 0 W/m 0,0 km/h (0 Bft) 97,87 %
19.04.2019 04:05 10,6 C 8,3 C 7,2 C 67 % 1024,1 hPa 0,0 l/m 0 min 0 min 0 W/m 0,0 km/h (0 Bft) 97,10 %
19.04.2019 04:06 10,6 C 8,3 C 7,2 C 67 % 1024,0 hPa 0,0 l/m 0 min 0 min 0 W/m 0,0 km/h (0 Bft) 100,00 %
19.04.2019 04:08 10,6 C 8,3 C 7,2 C 68 % 1024,1 hPa 0,0 l/m 0 min 0 min 0 W/m 0,0 km/h (0 Bft) 97,83 %
19.04.2019 04:10 10,5 C 8,3 C 7,2 C 68 % 1024,0 hPa 0,0 l/m 0 min 0 min 0 W/m 0,0 km/h (0 Bft) 100,00 %
19.04.2019 04:12 10,5 C 8,3 C 7,2 C 68 % 1024,0 hPa 0,0 l/m 0 min 0 min 0 W/m 0,0 km/h (0 Bft) 100,00 %
19.04.2019 04:14 10,4 C 8,3 C 7,2 C 68 % 1024,1 hPa 0,0 l/m 0 min 0 min 0 W/m 0,0 km/h (0 Bft) 100,00 %
19.04.2019 04:16 10,4 C 7,8 C 7,2 C 68 % 1024,2 hPa 0,0 l/m 0 min 0 min 0 W/m 0,0 km/h (0 Bft) 100,00 %
19.04.2019 04:18 10,3 C 8,3 C 6,7 C 68 % 1024,1 hPa 0,0 l/m 0 min 0 min 0 W/m 0,0 km/h (0 Bft) 100,00 %
19.04.2019 04:20 10,3 C 7,8 C 6,7 C 68 % 1024,1 hPa 0,0 l/m 0 min 0 min 0 W/m 0,0 km/h (0 Bft) 100,00 %
19.04.2019 04:22 10,3 C 7,8 C 6,7 C 68 % 1024,1 hPa 0,0 l/m 0 min 0 min 0 W/m 0,0 km/h (0 Bft) 97,87 %
19.04.2019 04:24 10,2 C 7,8 C 6,7 C 69 % 1024,1 hPa 0,0 l/m 0 min 0 min 0 W/m 0,0 km/h (0 Bft) 100,00 %
19.04.2019 04:26 10,2 C 7,8 C 6,7 C 69 % 1024,2 hPa 0,0 l/m 0 min 0 min 0 W/m 0,0 km/h (0 Bft) 100,00 %
19.04.2019 04:28 10,1 C 7,8 C 6,7 C 69 % 1024,1 hPa 0,0 l/m 0 min 0 min 0 W/m 0,0 km/h (0 Bft) 100,00 %
19.04.2019 04:30 10,1 C 7,8 C 6,7 C 69 % 1024,1 hPa 0,0 l/m 0 min 0 min 0 W/m 0,0 km/h (0 Bft) 100,00 %
19.04.2019 04:32 10,0 C 7,8 C 6,7 C 69 % 1024,2 hPa 0,0 l/m 0 min 0 min 0 W/m 0,0 km/h (0 Bft) 100,00 %
19.04.2019 04:34 9,9 C 7,8 C 6,7 C 69 % 1024,2 hPa 0,0 l/m 0 min 0 min 0 W/m 0,0 km/h (0 Bft) 100,00 %
19.04.2019 04:36 9,9 C 7,8 C 6,7 C 69 % 1024,3 hPa 0,0 l/m 0 min 0 min 0 W/m 0,0 km/h (0 Bft) 100,00 %
19.04.2019 04:38 9,8 C 7,8 C 6,7 C 69 % 1024,3 hPa 0,0 l/m 0 min 0 min 0 W/m 0,0 km/h (0 Bft) 100,00 %
19.04.2019 04:40 9,8 C 7,8 C 6,7 C 70 % 1024,3 hPa 0,0 l/m 0 min 0 min 0 W/m 0,0 km/h (0 Bft) 100,00 %
19.04.2019 04:42 9,7 C 7,8 C 6,1 C 70 % 1024,3 hPa 0,0 l/m 0 min 0 min 0 W/m 0,0 km/h (0 Bft) 97,87 %
19.04.2019 04:44 9,7 C 7,8 C 6,1 C 70 % 1024,4 hPa 0,0 l/m 0 min 0 min 0 W/m 0,0 km/h (0 Bft) 97,83 %
19.04.2019 04:46 9,6 C 7,8 C 6,7 C 70 % 1024,3 hPa 0,0 l/m 0 min 0 min 0 W/m 0,0 km/h (0 Bft) 97,87 %
19.04.2019 04:48 9,6 C 7,8 C 6,7 C 70 % 1024,4 hPa 0,0 l/m 0 min 0 min 0 W/m 0,0 km/h (0 Bft) 100,00 %
19.04.2019 04:50 9,6 C 7,8 C 6,7 C 70 % 1024,4 hPa 0,0 l/m 0 min 0 min 0 W/m 0,0 km/h (0 Bft) 100,00 %
19.04.2019 04:52 9,5 C 7,8 C 6,1 C 70 % 1024,4 hPa 0,0 l/m 0 min 0 min 0 W/m 0,0 km/h (0 Bft) 100,00 %
19.04.2019 04:54 9,4 C 7,8 C 6,1 C 70 % 1024,4 hPa 0,0 l/m 0 min 0 min 0 W/m 0,0 km/h (0 Bft) 100,00 %
19.04.2019 04:56 9,4 C 7,8 C 6,1 C 70 % 1024,4 hPa 0,0 l/m 0 min 0 min 0 W/m 3,2 km/h (1 Bft) 100,00 %
19.04.2019 04:58 9,4 C 7,8 C 6,1 C 70 % 1024,4 hPa 0,0 l/m 0 min 0 min 0 W/m 0,0 km/h (0 Bft) 100,00 %
19.04.2019 05:00 9,3 C 8,3 C 6,1 C 70 % 1024,4 hPa 0,0 l/m 0 min 0 min 0 W/m 0,0 km/h (0 Bft) 100,00 %
19.04.2019 05:02 9,3 C 8,3 C 6,7 C 71 % 1024,4 hPa 0,0 l/m 0 min 0 min 0 W/m 0,0 km/h (0 Bft) 95,74 %
19.04.2019 05:04 9,2 C 8,3 C 6,7 C 71 % 1024,4 hPa 0,0 l/m 0 min 0 min 0 W/m 0,0 km/h (0 Bft) 100,00 %
19.04.2019 05:05 9,2 C 8,3 C 6,7 C 71 % 1024,4 hPa 0,0 l/m 0 min 0 min 0 W/m 0,0 km/h (0 Bft) 100,00 %
19.04.2019 05:10 9,1 C 8,3 C 6,7 C 72 % 1024,4 hPa 0,0 l/m 0 min 0 min 0 W/m 3,2 km/h (1 Bft) 100,00 %
19.04.2019 05:15 9,1 C 8,3 C 6,7 C 72 % 1024,5 hPa 0,0 l/m 0 min 0 min 0 W/m 0,0 km/h (0 Bft) 97,14 %
19.04.2019 05:20 9,0 C 7,8 C 6,7 C 72 % 1024,4 hPa 0,0 l/m 0 min 0 min 0 W/m 3,2 km/h (1 Bft) 100,00 %
19.04.2019 05:22 9,0 C 7,8 C 6,7 C 72 % 1024,4 hPa 0,0 l/m 0 min 0 min 0 W/m 0,0 km/h (0 Bft) 97,87 %
19.04.2019 05:24 8,9 C 7,8 C 6,7 C 72 % 1024,4 hPa 0,0 l/m 0 min 0 min 0 W/m 0,0 km/h (0 Bft) 95,74 %
19.04.2019 05:26 8,9 C 7,8 C 6,1 C 72 % 1024,4 hPa 0,0 l/m 0 min 0 min 0 W/m 0,0 km/h (0 Bft) 97,83 %
19.04.2019 05:28 8,9 C 7,2 C 6,1 C 72 % 1024,5 hPa 0,0 l/m 0 min 0 min 0 W/m 0,0 km/h (0 Bft) 95,74 %
19.04.2019 05:30 8,9 C 7,2 C 6,1 C 72 % 1024,6 hPa 0,0 l/m 0 min 0 min 0 W/m 0,0 km/h (0 Bft) 91,49 %
19.04.2019 05:32 8,9 C 7,2 C 6,1 C 73 % 1024,6 hPa 0,0 l/m 0 min 0 min 0 W/m 0,0 km/h (0 Bft) 93,62 %
19.04.2019 05:34 8,8 C 7,2 C 6,1 C 73 % 1024,6 hPa 0,0 l/m 0 min 0 min 0 W/m 0,0 km/h (0 Bft) 93,62 %
19.04.2019 05:36 8,8 C 7,2 C 6,1 C 73 % 1024,6 hPa 0,0 l/m 0 min 0 min 0 W/m 0,0 km/h (0 Bft) 93,62 %
19.04.2019 05:38 8,8 C 7,2 C 6,1 C 73 % 1024,6 hPa 0,0 l/m 0 min 0 min 0 W/m 0,0 km/h (0 Bft) 93,48 %
19.04.2019 05:40 8,8 C 7,2 C 6,1 C 73 % 1024,6 hPa 0,0 l/m 0 min 0 min 0 W/m 0,0 km/h (0 Bft) 95,74 %
19.04.2019 05:42 8,8 C 7,8 C 6,1 C 73 % 1024,6 hPa 0,0 l/m 0 min 0 min 0 W/m 0,0 km/h (0 Bft) 93,62 %
19.04.2019 05:44 8,7 C 7,2 C 6,1 C 73 % 1024,6 hPa 0,0 l/m 0 min 0 min 0 W/m 0,0 km/h (0 Bft) 95,74 %
19.04.2019 05:46 8,7 C 7,2 C 6,1 C 73 % 1024,6 hPa 0,0 l/m 0 min 0 min 0 W/m 0,0 km/h (0 Bft) 97,87 %
19.04.2019 05:48 8,7 C 7,2 C 6,1 C 73 % 1024,6 hPa 0,0 l/m 0 min 0 min 0 W/m 0,0 km/h (0 Bft) 91,49 %
19.04.2019 05:50 8,7 C 7,2 C 6,1 C 73 % 1024,7 hPa 0,0 l/m 0 min 0 min 0 W/m 0,0 km/h (0 Bft) 95,65 %
19.04.2019 05:52 8,7 C 7,2 C 5,6 C 73 % 1024,6 hPa 0,0 l/m 0 min 0 min 0 W/m 0,0 km/h (0 Bft) 93,62 %
19.04.2019 05:54 8,7 C 7,2 C 6,1 C 74 % 1024,6 hPa 0,0 l/m 0 min 0 min 0 W/m 0,0 km/h (0 Bft) 95,74 %
19.04.2019 05:56 8,6 C 7,2 C 5,6 C 74 % 1024,6 hPa 0,0 l/m 0 min 0 min 0 W/m 0,0 km/h (0 Bft) 95,74 %
19.04.2019 05:58 8,6 C 7,2 C 5,6 C 74 % 1024,6 hPa 0,0 l/m 0 min 0 min 0 W/m 0,0 km/h (0 Bft) 95,74 %
19.04.2019 06:00 8,6 C 7,2 C 5,6 C 74 % 1024,7 hPa 0,0 l/m 0 min 0 min 0 W/m 0,0 km/h (0 Bft) 95,65 %
19.04.2019 06:02 8,6 C 7,2 C 5,6 C 74 % 1024,7 hPa 0,0 l/m 0 min 0 min 0 W/m 3,2 km/h (1 Bft) 93,62 %
19.04.2019 06:04 8,5 C 7,2 C 5,6 C 74 % 1024,7 hPa 0,0 l/m 0 min 0 min 0 W/m 3,2 km/h (1 Bft) 97,83 %
19.04.2019 06:08 8,4 C 7,2 C 5,6 C 75 % 1024,7 hPa 0,0 l/m 0 min 0 min 0 W/m 0,0 km/h (0 Bft) 92,55 %
19.04.2019 06:10 8,4 C 7,2 C 6,1 C 75 % 1024,8 hPa 0,0 l/m 0 min 0 min 0 W/m 3,2 km/h (1 Bft) 93,62 %
19.04.2019 06:12 8,4 C 7,2 C 6,1 C 75 % 1024,7 hPa 0,0 l/m 0 min 0 min 0 W/m 6,4 km/h (2 Bft) 95,65 %
19.04.2019 06:14 8,4 C 7,2 C 6,1 C 75 % 1024,7 hPa 0,0 l/m 0 min 0 min 0 W/m 0,0 km/h (0 Bft) 95,74 %
19.04.2019 06:16 8,4 C 7,8 C 6,1 C 75 % 1024,8 hPa 0,0 l/m 0 min 0 min 0 W/m 3,2 km/h (1 Bft) 95,74 %
19.04.2019 06:18 8,4 C 7,8 C 6,1 C 75 % 1024,8 hPa 0,0 l/m 0 min 0 min 0 W/m 3,2 km/h (1 Bft) 95,74 %
19.04.2019 06:20 8,3 C 7,8 C 6,1 C 75 % 1024,8 hPa 0,0 l/m 0 min 0 min 0 W/m 3,2 km/h (1 Bft) 97,87 %
19.04.2019 06:22 8,3 C 7,8 C 6,1 C 75 % 1024,8 hPa 0,0 l/m 0 min 0 min 0 W/m 0,0 km/h (0 Bft) 93,62 %
19.04.2019 06:24 8,3 C 7,8 C 6,1 C 75 % 1024,8 hPa 0,0 l/m 0 min 0 min 0 W/m 0,0 km/h (0 Bft) 95,65 %
19.04.2019 06:26 8,3 C 7,8 C 6,1 C 76 % 1024,8 hPa 0,0 l/m 0 min 0 min 0 W/m 3,2 km/h (1 Bft) 97,87 %
19.04.2019 06:28 8,3 C 7,8 C 6,1 C 76 % 1024,8 hPa 0,0 l/m 0 min 0 min 0 W/m 6,4 km/h (2 Bft) 97,87 %
19.04.2019 06:30 8,3 C 7,8 C 6,1 C 76 % 1024,8 hPa 0,0 l/m 0 min 0 min 0 W/m 3,2 km/h (1 Bft) 97,87 %
19.04.2019 06:32 8,3 C 7,8 C 6,1 C 76 % 1024,9 hPa 0,0 l/m 0 min 0 min 2 W/m 0,0 km/h (0 Bft) 97,87 %
19.04.2019 06:34 8,3 C 7,8 C 6,1 C 76 % 1024,8 hPa 0,0 l/m 0 min 0 min 5 W/m 0,0 km/h (0 Bft) 95,74 %
19.04.2019 06:36 8,3 C 7,8 C 6,1 C 76 % 1024,9 hPa 0,0 l/m 0 min 0 min 5 W/m 0,0 km/h (0 Bft) 97,83 %
19.04.2019 06:38 8,3 C 7,8 C 6,1 C 76 % 1024,9 hPa 0,0 l/m 0 min 0 min 7 W/m 3,2 km/h (1 Bft) 100,00 %
19.04.2019 06:40 8,3 C 7,2 C 6,1 C 76 % 1024,9 hPa 0,0 l/m 0 min 0 min 7 W/m 3,2 km/h (1 Bft) 100,00 %
19.04.2019 06:42 8,3 C 7,2 C 6,1 C 76 % 1025,0 hPa 0,0 l/m 0 min 0 min 8 W/m 3,2 km/h (1 Bft) 100,00 %
19.04.2019 06:44 8,3 C 7,2 C 6,1 C 76 % 1024,9 hPa 0,0 l/m 0 min 0 min 9 W/m 3,2 km/h (1 Bft) 97,87 %
19.04.2019 06:46 8,3 C 7,2 C 6,1 C 76 % 1024,9 hPa 0,0 l/m 0 min 0 min 9 W/m 6,4 km/h (2 Bft) 100,00 %
19.04.2019 06:48 8,3 C 7,8 C 6,1 C 77 % 1025,0 hPa 0,0 l/m 0 min 0 min 11 W/m 6,4 km/h (2 Bft) 97,83 %
19.04.2019 06:50 8,3 C 7,8 C 6,1 C 77 % 1025,0 hPa 0,0 l/m 0 min 0 min 11 W/m 6,4 km/h (2 Bft) 97,14 %
19.04.2019 06:52 8,3 C 7,8 C 6,1 C 77 % 1024,9 hPa 0,0 l/m 0 min 0 min 11 W/m 0,0 km/h (0 Bft) 100,00 %
19.04.2019 06:54 8,3 C 7,8 C 6,1 C 77 % 1025,0 hPa 0,0 l/m 0 min 0 min 12 W/m 0,0 km/h (0 Bft) 97,14 %
19.04.2019 06:56 8,3 C 7,8 C 6,1 C 77 % 1025,0 hPa 0,0 l/m 0 min 0 min 12 W/m 0,0 km/h (0 Bft) 100,00 %
19.04.2019 06:58 8,3 C 8,3 C 6,7 C 77 % 1025,0 hPa 0,0 l/m 0 min 0 min 13 W/m 0,0 km/h (0 Bft) 97,87 %
19.04.2019 07:00 8,3 C 8,3 C 6,7 C 77 % 1025,0 hPa 0,0 l/m 0 min 0 min 14 W/m 0,0 km/h (0 Bft) 97,87 %
19.04.2019 07:02 8,3 C 8,3 C 6,7 C 77 % 1025,0 hPa 0,0 l/m 0 min 0 min 15 W/m 0,0 km/h (0 Bft) 97,83 %
19.04.2019 07:04 8,3 C 8,3 C 6,7 C 77 % 1025,1 hPa 0,0 l/m 0 min 0 min 16 W/m 0,0 km/h (0 Bft) 97,87 %
19.04.2019 07:06 8,4 C 8,3 C 6,7 C 77 % 1025,0 hPa 0,0 l/m 0 min 0 min 17 W/m 0,0 km/h (0 Bft) 96,61 %
19.04.2019 07:08 8,4 C 8,3 C 6,7 C 77 % 1025,1 hPa 0,0 l/m 0 min 0 min 18 W/m 0,0 km/h (0 Bft) 97,87 %
19.04.2019 07:10 8,4 C 8,3 C 6,7 C 77 % 1025,1 hPa 0,0 l/m 0 min 0 min 19 W/m 0,0 km/h (0 Bft) 97,14 %
19.04.2019 07:12 8,4 C 8,3 C 7,2 C 77 % 1025,1 hPa 0,0 l/m 0 min 0 min 19 W/m 0,0 km/h (0 Bft) 94,83 %
19.04.2019 07:14 8,4 C 8,3 C 7,2 C 77 % 1025,1 hPa 0,0 l/m 0 min 0 min 19 W/m 0,0 km/h (0 Bft) 100,00 %
19.04.2019 07:16 8,4 C 8,3 C 7,2 C 78 % 1025,1 hPa 0,0 l/m 0 min 0 min 21 W/m 0,0 km/h (0 Bft) 95,74 %
19.04.2019 07:18 8,5 C 8,3 C 7,2 C 78 % 1025,1 hPa 0,0 l/m 0 min 0 min 21 W/m 0,0 km/h (0 Bft) 98,31 %
19.04.2019 07:20 8,5 C 8,3 C 7,2 C 78 % 1025,1 hPa 0,0 l/m 0 min 0 min 22 W/m 0,0 km/h (0 Bft) 97,14 %
19.04.2019 07:22 8,6 C 8,3 C 7,2 C 78 % 1025,3 hPa 0,0 l/m 0 min 0 min 23 W/m 0,0 km/h (0 Bft) 97,87 %
19.04.2019 07:24 8,6 C 8,3 C 7,2 C 77 % 1025,2 hPa 0,0 l/m 0 min 0 min 24 W/m 0,0 km/h (0 Bft) 97,87 %
19.04.2019 07:26 8,6 C 8,3 C 7,2 C 78 % 1025,2 hPa 0,0 l/m 0 min 0 min 25 W/m 0,0 km/h (0 Bft) 97,83 %
19.04.2019 07:28 8,6 C 8,3 C 7,2 C 78 % 1025,3 hPa 0,0 l/m 0 min 0 min 25 W/m 0,0 km/h (0 Bft) 97,87 %
19.04.2019 07:30 8,6 C 8,3 C 7,2 C 77 % 1025,4 hPa 0,0 l/m 0 min 0 min 26 W/m 0,0 km/h (0 Bft) 100,00 %
19.04.2019 07:32 8,6 C 8,9 C 7,2 C 77 % 1025,4 hPa 0,0 l/m 0 min 0 min 30 W/m 0,0 km/h (0 Bft) 100,00 %
19.04.2019 07:34 8,7 C 8,9 C 7,2 C 78 % 1025,4 hPa 0,0 l/m 0 min 0 min 27 W/m 6,4 km/h (2 Bft) 100,00 %
19.04.2019 07:36 8,7 C 8,9 C 7,2 C 78 % 1025,4 hPa 0,0 l/m 0 min 0 min 28 W/m 3,2 km/h (1 Bft) 100,00 %
19.04.2019 07:38 8,7 C 8,9 C 7,2 C 78 % 1025,4 hPa 0,0 l/m 0 min 0 min 28 W/m 3,2 km/h (1 Bft) 100,00 %
19.04.2019 07:40 8,7 C 8,9 C 7,2 C 78 % 1025,4 hPa 0,0 l/m 0 min 0 min 29 W/m 3,2 km/h (1 Bft) 100,00 %
19.04.2019 07:42 8,8 C 9,4 C 7,8 C 78 % 1025,5 hPa 0,0 l/m 0 min 0 min 30 W/m 6,4 km/h (2 Bft) 100,00 %
19.04.2019 07:44 8,8 C 9,4 C 7,8 C 78 % 1025,4 hPa 0,0 l/m 0 min 0 min 30 W/m 6,4 km/h (2 Bft) 100,00 %
19.04.2019 07:46 8,8 C 9,4 C 7,8 C 78 % 1025,5 hPa 0,0 l/m 0 min 0 min 32 W/m 6,4 km/h (2 Bft) 97,14 %
19.04.2019 07:48 8,9 C 9,4 C 7,8 C 78 % 1025,5 hPa 0,0 l/m 0 min 0 min 32 W/m 3,2 km/h (1 Bft) 100,00 %
19.04.2019 07:50 8,9 C 9,4 C 7,8 C 78 % 1025,5 hPa 0,0 l/m 0 min 0 min 32 W/m 3,2 km/h (1 Bft) 100,00 %
19.04.2019 07:52 8,9 C 9,4 C 7,8 C 78 % 1025,5 hPa 0,0 l/m 0 min 0 min 33 W/m 3,2 km/h (1 Bft) 100,00 %
19.04.2019 07:54 8,9 C 9,4 C 7,8 C 78 % 1025,5 hPa 0,0 l/m 0 min 0 min 33 W/m 6,4 km/h (2 Bft) 100,00 %
19.04.2019 07:56 9,0 C 9,4 C 7,8 C 78 % 1025,5 hPa 0,0 l/m 0 min 0 min 34 W/m 9,7 km/h (2 Bft) 97,87 %
19.04.2019 07:58 9,1 C 10,0 C 8,3 C 78 % 1025,5 hPa 0,0 l/m 0 min 0 min 35 W/m 6,4 km/h (2 Bft) 100,00 %
19.04.2019 08:00 9,1 C 10,0 C 8,3 C 78 % 1025,6 hPa 0,0 l/m 0 min 0 min 35 W/m 3,2 km/h (1 Bft) 98,28 %
19.04.2019 08:02 9,2 C 10,0 C 8,3 C 78 % 1025,6 hPa 0,0 l/m 0 min 0 min 36 W/m 6,4 km/h (2 Bft) 100,00 %
19.04.2019 08:04 9,2 C 10,0 C 8,3 C 78 % 1025,6 hPa 0,0 l/m 0 min 0 min 37 W/m 6,4 km/h (2 Bft) 100,00 %
19.04.2019 08:06 9,3 C 10,0 C 8,3 C 78 % 1025,5 hPa 0,0 l/m 0 min 0 min 37 W/m 6,4 km/h (2 Bft) 100,00 %
19.04.2019 08:08 9,3 C 10,0 C 8,9 C 78 % 1025,5 hPa 0,0 l/m 0 min 0 min 38 W/m 6,4 km/h (2 Bft) 100,00 %
19.04.2019 08:10 9,4 C 10,0 C 8,9 C 78 % 1025,6 hPa 0,0 l/m 0 min 0 min 39 W/m 6,4 km/h (2 Bft) 100,00 %
19.04.2019 08:12 9,4 C 10,0 C 8,9 C 78 % 1025,6 hPa 0,0 l/m 0 min 0 min 39 W/m 6,4 km/h (2 Bft) 100,00 %
19.04.2019 08:14 9,6 C 10,6 C 8,9 C 78 % 1025,6 hPa 0,0 l/m 0 min 0 min 39 W/m 6,4 km/h (2 Bft) 100,00 %
19.04.2019 08:16 9,6 C 10,6 C 8,9 C 77 % 1025,6 hPa 0,0 l/m 0 min 0 min 40 W/m 6,4 km/h (2 Bft) 97,87 %
19.04.2019 08:18 9,7 C 10,6 C 8,9 C 77 % 1025,6 hPa 0,0 l/m 0 min 0 min 40 W/m 6,4 km/h (2 Bft) 98,31 %
19.04.2019 08:20 9,7 C 10,6 C 8,9 C 77 % 1025,5 hPa 0,0 l/m 0 min 0 min 40 W/m 9,7 km/h (2 Bft) 97,14 %
19.04.2019 08:22 9,8 C 10,6 C 8,9 C 77 % 1025,6 hPa 0,0 l/m 0 min 0 min 42 W/m 6,4 km/h (2 Bft) 95,74 %
19.04.2019 08:24 9,9 C 11,1 C 8,9 C 77 % 1025,6 hPa 0,0 l/m 0 min 0 min 42 W/m 6,4 km/h (2 Bft) 96,55 %
19.04.2019 08:26 9,9 C 11,1 C 8,9 C 77 % 1025,6 hPa 0,0 l/m 0 min 0 min 42 W/m 6,4 km/h (2 Bft) 100,00 %
19.04.2019 08:28 10,0 C 11,1 C 9,4 C 77 % 1025,7 hPa 0,0 l/m 0 min 0 min 43 W/m 3,2 km/h (1 Bft) 95,74 %
19.04.2019 08:30 10,1 C 11,1 C 9,4 C 77 % 1025,6 hPa 0,0 l/m 0 min 0 min 44 W/m 9,7 km/h (2 Bft) 97,87 %
19.04.2019 08:32 10,1 C 11,1 C 9,4 C 77 % 1025,7 hPa 0,0 l/m 0 min 0 min 44 W/m 6,4 km/h (2 Bft) 97,87 %
19.04.2019 08:34 10,2 C 11,7 C 9,4 C 77 % 1025,7 hPa 0,0 l/m 0 min 0 min 44 W/m 9,7 km/h (2 Bft) 97,87 %
19.04.2019 08:36 10,2 C 11,7 C 9,4 C 77 % 1025,7 hPa 0,0 l/m 0 min 0 min 45 W/m 9,7 km/h (2 Bft) 98,28 %
19.04.2019 08:38 10,3 C 11,7 C 10,0 C 77 % 1025,7 hPa 0,0 l/m 0 min 0 min 46 W/m 6,4 km/h (2 Bft) 97,87 %
19.04.2019 08:40 10,4 C 11,7 C 10,0 C 76 % 1025,6 hPa 0,0 l/m 0 min 0 min 46 W/m 6,4 km/h (2 Bft) 97,14 %
19.04.2019 08:42 10,5 C 11,7 C 10,0 C 76 % 1025,7 hPa 0,0 l/m 0 min 0 min 46 W/m 6,4 km/h (2 Bft) 97,87 %
19.04.2019 08:44 10,6 C 12,2 C 10,0 C 76 % 1025,7 hPa 0,0 l/m 0 min 0 min 53 W/m 6,4 km/h (2 Bft) 97,87 %
19.04.2019 08:46 10,6 C 12,2 C 10,0 C 76 % 1025,7 hPa 0,0 l/m 0 min 0 min 128 W/m 6,4 km/h (2 Bft) 95,74 %
19.04.2019 08:48 10,7 C 12,8 C 10,0 C 76 % 1025,7 hPa 0,0 l/m 0 min 0 min 148 W/m 9,7 km/h (2 Bft) 98,28 %
19.04.2019 08:50 10,8 C 14,4 C 10,0 C 76 % 1025,8 hPa 0,0 l/m 0 min 0 min 126 W/m 6,4 km/h (2 Bft) 97,14 %
19.04.2019 08:52 10,9 C 16,1 C 10,6 C 76 % 1025,7 hPa 0,0 l/m 0 min 0 min 104 W/m 9,7 km/h (2 Bft) 95,74 %
19.04.2019 08:54 10,9 C 17,8 C 10,6 C 76 % 1025,8 hPa 0,0 l/m 0 min 0 min 86 W/m 6,4 km/h (2 Bft) 96,61 %
19.04.2019 08:56 11,1 C 18,3 C 10,6 C 76 % 1025,7 hPa 0,0 l/m 0 min 0 min 72 W/m 6,4 km/h (2 Bft) 94,29 %
19.04.2019 08:58 11,2 C 18,3 C 10,6 C 76 % 1025,7 hPa 0,0 l/m 0 min 0 min 61 W/m 6,4 km/h (2 Bft) 95,65 %
19.04.2019 09:00 11,4 C 18,9 C 11,1 C 75 % 1025,8 hPa 0,0 l/m 0 min 0 min 54 W/m 9,7 km/h (2 Bft) 94,92 %
19.04.2019 09:02 11,5 C 18,3 C 11,1 C 75 % 1025,7 hPa 0,0 l/m 0 min 0 min 51 W/m 6,4 km/h (2 Bft) 97,87 %
19.04.2019 09:04 11,7 C 18,3 C 11,1 C 75 % 1025,8 hPa 0,0 l/m 0 min 0 min 51 W/m 6,4 km/h (2 Bft) 94,29 %
19.04.2019 09:06 11,8 C 18,9 C 11,1 C 75 % 1025,8 hPa 0,0 l/m 0 min 0 min 51 W/m 9,7 km/h (2 Bft) 96,61 %
19.04.2019 09:08 12,1 C 19,4 C 11,7 C 74 % 1025,8 hPa 0,0 l/m 0 min 0 min 53 W/m 6,4 km/h (2 Bft) 95,65 %
19.04.2019 09:10 12,2 C 20,0 C 11,7 C 73 % 1025,7 hPa 0,0 l/m 0 min 0 min 53 W/m 6,4 km/h (2 Bft) 97,14 %
19.04.2019 09:12 12,4 C 20,6 C 12,2 C 73 % 1025,8 hPa 0,0 l/m 0 min 0 min 53 W/m 6,4 km/h (2 Bft) 95,74 %
19.04.2019 09:14 12,7 C 21,1 C 12,2 C 73 % 1025,8 hPa 0,0 l/m 0 min 0 min 53 W/m 6,4 km/h (2 Bft) 97,87 %
19.04.2019 09:16 12,9 C 21,1 C 14,4 C 72 % 1025,8 hPa 0,0 l/m 0 min 0 min 54 W/m 6,4 km/h (2 Bft) 96,61 %
19.04.2019 09:18 13,2 C 21,1 C 15,0 C 72 % 1025,8 hPa 0,0 l/m 0 min 0 min 54 W/m 12,9 km/h (3 Bft) 94,29 %
19.04.2019 09:20 13,4 C 21,1 C 15,6 C 71 % 1025,8 hPa 0,0 l/m 0 min 0 min 54 W/m 9,7 km/h (2 Bft) 98,28 %
19.04.2019 09:22 13,6 C 21,1 C 16,1 C 70 % 1025,8 hPa 0,0 l/m 0 min 0 min 54 W/m 12,9 km/h (3 Bft) 97,14 %
19.04.2019 09:24 13,8 C 21,1 C 18,3 C 68 % 1025,8 hPa 0,0 l/m 0 min 0 min 55 W/m 6,4 km/h (2 Bft) 97,87 %
19.04.2019 09:26 14,1 C 22,2 C 19,4 C 69 % 1025,8 hPa 0,0 l/m 0 min 0 min 56 W/m 6,4 km/h (2 Bft) 95,74 %
19.04.2019 09:28 14,2 C 22,2 C 20,0 C 68 % 1025,8 hPa 0,0 l/m 0 min 0 min 56 W/m 6,4 km/h (2 Bft) 95,74 %
19.04.2019 09:30 14,5 C 22,8 C 20,6 C 68 % 1025,8 hPa 0,0 l/m 0 min 0 min 57 W/m 6,4 km/h (2 Bft) 93,62 %
19.04.2019 09:32 14,8 C 23,3 C 21,1 C 67 % 1025,8 hPa 0,0 l/m 0 min 0 min 58 W/m 6,4 km/h (2 Bft) 95,74 %
19.04.2019 09:34 14,9 C 23,3 C 21,1 C 66 % 1025,8 hPa 0,0 l/m 0 min 0 min 58 W/m 6,4 km/h (2 Bft) 95,65 %
19.04.2019 09:36 15,2 C 23,9 C 22,2 C 65 % 1025,8 hPa 0,0 l/m 0 min 0 min 58 W/m 6,4 km/h (2 Bft) 98,31 %
19.04.2019 09:38 15,4 C 23,9 C 22,2 C 65 % 1025,8 hPa 0,0 l/m 0 min 0 min 58 W/m 6,4 km/h (2 Bft) 95,74 %
19.04.2019 09:40 15,6 C 23,3 C 21,7 C 63 % 1025,9 hPa 0,0 l/m 0 min 0 min 58 W/m 9,7 km/h (2 Bft) 94,29 %
19.04.2019 09:42 15,8 C 23,3 C 22,2 C 63 % 1025,9 hPa 0,0 l/m 0 min 0 min 60 W/m 6,4 km/h (2 Bft) 97,87 %
19.04.2019 09:44 16,0 C 23,9 C 22,8 C 63 % 1025,9 hPa 0,0 l/m 0 min 0 min 60 W/m 9,7 km/h (2 Bft) 97,87 %
19.04.2019 09:46 16,2 C 23,3 C 22,8 C 61 % 1025,8 hPa 0,0 l/m 0 min 0 min 60 W/m 9,7 km/h (2 Bft) 96,55 %
19.04.2019 09:48 16,4 C 23,3 C 22,2 C 61 % 1025,8 hPa 0,0 l/m 0 min 0 min 60 W/m 6,4 km/h (2 Bft) 97,14 %
19.04.2019 09:50 16,6 C 23,3 C 22,8 C 61 % 1025,8 hPa 0,0 l/m 0 min 0 min 62 W/m 9,7 km/h (2 Bft) 95,74 %
19.04.2019 09:52 16,7 C 24,4 C 22,8 C 61 % 1025,8 hPa 0,0 l/m 0 min 0 min 62 W/m 6,4 km/h (2 Bft) 96,61 %
19.04.2019 09:54 16,8 C 24,4 C 23,3 C 60 % 1025,8 hPa 0,0 l/m 0 min 0 min 62 W/m 9,7 km/h (2 Bft) 100,00 %
19.04.2019 09:56 17,0 C 24,4 C 23,3 C 60 % 1025,8 hPa 0,0 l/m 0 min 0 min 62 W/m 6,4 km/h (2 Bft) 96,55 %
19.04.2019 09:58 17,2 C 24,4 C 23,9 C 60 % 1025,8 hPa 0,0 l/m 0 min 0 min 63 W/m 6,4 km/h (2 Bft) 97,14 %
19.04.2019 10:00 17,3 C 25,0 C 24,4 C 59 % 1025,9 hPa 0,0 l/m 0 min 0 min 67 W/m 9,7 km/h (2 Bft) 96,61 %
19.04.2019 10:02 17,4 C 25,0 C 23,9 C 58 % 1025,9 hPa 0,0 l/m 0 min 0 min 79 W/m 9,7 km/h (2 Bft) 97,14 %
19.04.2019 10:04 17,6 C 24,4 C 23,3 C 58 % 1026,0 hPa 0,0 l/m 0 min 0 min 101 W/m 12,9 km/h (3 Bft) 97,87 %
19.04.2019 10:06 17,7 C 23,9 C 23,9 C 57 % 1026,0 hPa 0,0 l/m 0 min 0 min 134 W/m 6,4 km/h (2 Bft) 96,55 %
19.04.2019 10:08 17,8 C 24,4 C 25,0 C 57 % 1026,0 hPa 0,0 l/m 0 min 0 min 178 W/m 9,7 km/h (2 Bft) 97,87 %
19.04.2019 10:10 17,9 C 24,4 C 24,4 C 57 % 1026,0 hPa 0,0 l/m 0 min 0 min 230 W/m 6,4 km/h (2 Bft) 97,14 %
19.04.2019 10:12 18,1 C 25,0 C 25,0 C 57 % 1026,1 hPa 0,0 l/m 2 min 0 min 287 W/m 9,7 km/h (2 Bft) 97,87 %
19.04.2019 10:14 18,2 C 25,0 C 24,4 C 56 % 1026,0 hPa 0,0 l/m 2 min 0 min 349 W/m 12,9 km/h (3 Bft) 95,74 %
19.04.2019 10:16 18,3 C 24,4 C 25,0 C 55 % 1026,0 hPa 0,0 l/m 2 min 0 min 410 W/m 9,7 km/h (2 Bft) 97,87 %
19.04.2019 10:18 18,4 C 24,4 C 24,4 C 55 % 1026,0 hPa 0,0 l/m 2 min 0 min 462 W/m 6,4 km/h (2 Bft) 97,87 %
19.04.2019 10:20 18,5 C 24,4 C 25,0 C 54 % 1026,1 hPa 0,0 l/m 2 min 0 min 506 W/m 9,7 km/h (2 Bft) 98,28 %
19.04.2019 10:22 18,6 C 24,4 C 24,4 C 55 % 1026,1 hPa 0,0 l/m 2 min 0 min 537 W/m 9,7 km/h (2 Bft) 97,14 %
19.04.2019 10:24 18,6 C 23,9 C 23,9 C 54 % 1026,1 hPa 0,0 l/m 2 min 0 min 557 W/m 9,7 km/h (2 Bft) 97,87 %
19.04.2019 10:26 18,7 C 23,3 C 23,9 C 54 % 1026,2 hPa 0,0 l/m 2 min 0 min 568 W/m 9,7 km/h (2 Bft) 97,87 %
19.04.2019 10:28 18,7 C 24,4 C 24,4 C 55 % 1026,1 hPa 0,0 l/m 2 min 0 min 575 W/m 6,4 km/h (2 Bft) 98,31 %
19.04.2019 10:30 18,7 C 24,4 C 24,4 C 54 % 1026,1 hPa 0,0 l/m 2 min 0 min 580 W/m 12,9 km/h (3 Bft) 97,14 %
19.04.2019 10:32 18,8 C 25,6 C 25,0 C 55 % 1026,1 hPa 0,0 l/m 2 min 0 min 585 W/m 9,7 km/h (2 Bft) 91,30 %
19.04.2019 10:34 18,9 C 25,0 C 25,0 C 55 % 1026,0 hPa 0,0 l/m 2 min 0 min 590 W/m 6,4 km/h (2 Bft) 93,62 %
19.04.2019 10:36 19,0 C 26,1 C 26,1 C 54 % 1026,1 hPa 0,0 l/m 2 min 0 min 596 W/m 6,4 km/h (2 Bft) 96,61 %
19.04.2019 10:38 19,1 C 26,7 C 26,7 C 56 % 1026,1 hPa 0,0 l/m 2 min 0 min 600 W/m 9,7 km/h (2 Bft) 95,74 %
19.04.2019 10:40 19,2 C 27,2 C 26,7 C 55 % 1026,2 hPa 0,0 l/m 2 min 0 min 605 W/m 12,9 km/h (3 Bft) 95,74 %
19.04.2019 10:42 19,3 C 26,1 C 26,1 C 53 % 1026,1 hPa 0,0 l/m 2 min 0 min 609 W/m 6,4 km/h (2 Bft) 91,43 %
19.04.2019 10:44 19,4 C 26,1 C 26,1 C 54 % 1026,1 hPa 0,0 l/m 2 min 0 min 616 W/m 12,9 km/h (3 Bft) 95,74 %
19.04.2019 10:46 19,6 C 26,7 C 26,7 C 54 % 1026,1 hPa 0,0 l/m 2 min 0 min 620 W/m 9,7 km/h (2 Bft) 95,65 %
19.04.2019 10:48 19,6 C 26,7 C 26,7 C 53 % 1026,1 hPa 0,0 l/m 2 min 0 min 626 W/m 6,4 km/h (2 Bft) 91,49 %
19.04.2019 10:50 19,7 C 27,8 C 26,7 C 54 % 1026,1 hPa 0,0 l/m 2 min 0 min 631 W/m 6,4 km/h (2 Bft) 96,61 %
19.04.2019 10:52 19,9 C 28,3 C 26,7 C 55 % 1026,1 hPa 0,0 l/m 2 min 0 min 636 W/m 6,4 km/h (2 Bft) 95,65 %
19.04.2019 10:54 20,0 C 28,3 C 27,2 C 54 % 1026,0 hPa 0,0 l/m 2 min 0 min 641 W/m 9,7 km/h (2 Bft) 94,44 %
19.04.2019 10:56 20,1 C 28,3 C 27,2 C 52 % 1026,1 hPa 0,0 l/m 2 min 0 min 648 W/m 9,7 km/h (2 Bft) 95,65 %
19.04.2019 10:58 20,2 C 28,3 C 27,8 C 53 % 1026,1 hPa 0,0 l/m 2 min 0 min 653 W/m 12,9 km/h (3 Bft) 95,74 %
19.04.2019 11:00 20,3 C 26,7 C 26,1 C 50 % 1026,1 hPa 0,0 l/m 2 min 0 min 660 W/m 9,7 km/h (2 Bft) 95,74 %
19.04.2019 11:02 20,3 C 27,2 C 26,1 C 50 % 1026,0 hPa 0,0 l/m 2 min 0 min 664 W/m 6,4 km/h (2 Bft) 95,74 %
19.04.2019 11:04 20,4 C 27,2 C 26,7 C 51 % 1026,0 hPa 0,0 l/m 2 min 0 min 670 W/m 6,4 km/h (2 Bft) 91,49 %
19.04.2019 11:06 20,4 C 26,1 C 26,1 C 50 % 1026,0 hPa 0,0 l/m 2 min 0 min 675 W/m 6,4 km/h (2 Bft) 96,55 %
19.04.2019 11:08 20,4 C 27,2 C 26,7 C 51 % 1026,0 hPa 0,0 l/m 2 min 0 min 679 W/m 6,4 km/h (2 Bft) 95,74 %
19.04.2019 11:10 20,5 C 27,2 C 26,1 C 51 % 1026,0 hPa 0,0 l/m 2 min 0 min 686 W/m 6,4 km/h (2 Bft) 94,29 %
19.04.2019 11:12 20,6 C 27,2 C 26,7 C 50 % 1026,0 hPa 0,0 l/m 2 min 0 min 688 W/m 6,4 km/h (2 Bft) 95,74 %
19.04.2019 11:14 20,6 C 27,2 C 27,2 C 50 % 1025,9 hPa 0,0 l/m 2 min 0 min 695 W/m 6,4 km/h (2 Bft) 97,87 %
19.04.2019 11:16 20,7 C 26,1 C 26,7 C 49 % 1026,0 hPa 0,0 l/m 2 min 0 min 700 W/m 9,7 km/h (2 Bft) 95,74 %
19.04.2019 11:18 20,7 C 27,2 C 27,8 C 50 % 1026,0 hPa 0,0 l/m 2 min 0 min 703 W/m 6,4 km/h (2 Bft) 100,00 %
19.04.2019 11:20 20,7 C 27,2 C 28,3 C 51 % 1025,9 hPa 0,0 l/m 2 min 0 min 709 W/m 6,4 km/h (2 Bft) 97,83 %
19.04.2019 11:22 20,8 C 28,3 C 28,3 C 51 % 1025,9 hPa 0,0 l/m 2 min 0 min 711 W/m 9,7 km/h (2 Bft) 97,87 %
19.04.2019 11:24 20,9 C 28,9 C 28,9 C 52 % 1025,9 hPa 0,0 l/m 2 min 0 min 713 W/m 6,4 km/h (2 Bft) 100,00 %
19.04.2019 11:26 21,0 C 28,3 C 28,3 C 50 % 1025,9 hPa 0,0 l/m 2 min 0 min 719 W/m 9,7 km/h (2 Bft) 100,00 %
19.04.2019 11:28 21,1 C 27,2 C 27,8 C 51 % 1025,9 hPa 0,0 l/m 2 min 0 min 723 W/m 9,7 km/h (2 Bft) 100,00 %
19.04.2019 11:30 21,1 C 28,9 C 28,3 C 51 % 1025,9 hPa 0,0 l/m 2 min 0 min 728 W/m 9,7 km/h (2 Bft) 100,00 %
19.04.2019 11:32 21,2 C 27,2 C 27,2 C 49 % 1025,8 hPa 0,0 l/m 2 min 0 min 730 W/m 12,9 km/h (3 Bft) 97,83 %
19.04.2019 11:34 21,2 C 27,2 C 27,2 C 50 % 1025,9 hPa 0,0 l/m 2 min 0 min 734 W/m 9,7 km/h (2 Bft) 100,00 %
19.04.2019 11:36 21,3 C 28,9 C 27,8 C 50 % 1025,9 hPa 0,0 l/m 2 min 0 min 739 W/m 9,7 km/h (2 Bft) 100,00 %
19.04.2019 11:38 21,4 C 30,0 C 28,3 C 50 % 1025,8 hPa 0,0 l/m 2 min 0 min 743 W/m 6,4 km/h (2 Bft) 100,00 %
19.04.2019 11:40 21,5 C 28,9 C 27,8 C 49 % 1025,8 hPa 0,0 l/m 2 min 0 min 746 W/m 12,9 km/h (3 Bft) 100,00 %
19.04.2019 11:42 21,6 C 27,2 C 27,2 C 48 % 1025,8 hPa 0,0 l/m 2 min 0 min 751 W/m 12,9 km/h (3 Bft) 97,87 %
19.04.2019 11:44 21,6 C 28,3 C 25,6 C 50 % 1025,8 hPa 0,0 l/m 2 min 0 min 755 W/m 6,4 km/h (2 Bft) 98,28 %
19.04.2019 11:46 21,7 C 30,0 C 24,4 C 52 % 1025,8 hPa 0,0 l/m 2 min 0 min 757 W/m 6,4 km/h (2 Bft) 97,14 %
19.04.2019 11:48 21,8 C 28,9 C 23,9 C 49 % 1025,8 hPa 0,0 l/m 2 min 0 min 759 W/m 6,4 km/h (2 Bft) 97,87 %
19.04.2019 11:50 21,9 C 27,8 C 22,8 C 48 % 1025,8 hPa 0,0 l/m 2 min 0 min 764 W/m 16,1 km/h (3 Bft) 95,74 %
19.04.2019 11:52 22,0 C 29,4 C 22,8 C 51 % 1025,8 hPa 0,0 l/m 2 min 0 min 765 W/m 12,9 km/h (3 Bft) 100,00 %
19.04.2019 11:54 22,2 C 30,0 C 23,3 C 50 % 1025,7 hPa 0,0 l/m 2 min 0 min 768 W/m 9,7 km/h (2 Bft) 97,83 %
19.04.2019 11:56 22,2 C 30,0 C 22,8 C 49 % 1025,7 hPa 0,0 l/m 2 min 0 min 773 W/m 12,9 km/h (3 Bft) 98,31 %
19.04.2019 11:58 22,3 C 30,6 C 22,8 C 50 % 1025,7 hPa 0,0 l/m 2 min 0 min 777 W/m 12,9 km/h (3 Bft) 97,87 %
19.04.2019 12:00 22,4 C 30,6 C 22,8 C 49 % 1025,7 hPa 0,0 l/m 2 min 0 min 779 W/m 9,7 km/h (2 Bft) 97,14 %
19.04.2019 12:02 22,5 C 30,6 C 22,8 C 49 % 1025,6 hPa 0,0 l/m 2 min 0 min 779 W/m 12,9 km/h (3 Bft) 97,87 %
19.04.2019 12:04 22,6 C 29,4 C 22,8 C 48 % 1025,7 hPa 0,0 l/m 2 min 0 min 783 W/m 12,9 km/h (3 Bft) 96,55 %
19.04.2019 12:08 22,7 C 28,3 C 22,2 C 46 % 1025,5 hPa 0,0 l/m 4 min 0 min 786 W/m 9,7 km/h (2 Bft) 98,78 %
19.04.2019 12:10 22,7 C 30,0 C 22,8 C 49 % 1025,5 hPa 0,0 l/m 2 min 0 min 787 W/m 6,4 km/h (2 Bft) 97,87 %
19.04.2019 12:12 22,9 C 31,1 C 23,3 C 49 % 1025,5 hPa 0,0 l/m 2 min 0 min 793 W/m 9,7 km/h (2 Bft) 96,61 %
19.04.2019 12:14 22,9 C 31,7 C 23,9 C 48 % 1025,5 hPa 0,0 l/m 2 min 0 min 796 W/m 6,4 km/h (2 Bft) 97,14 %
19.04.2019 12:16 23,1 C 32,2 C 24,4 C 49 % 1025,5 hPa 0,0 l/m 2 min 0 min 796 W/m 9,7 km/h (2 Bft) 95,74 %
19.04.2019 12:18 23,2 C 31,7 C 25,0 C 48 % 1025,5 hPa 0,0 l/m 2 min 0 min 801 W/m 16,1 km/h (3 Bft) 97,83 %
19.04.2019 12:20 23,3 C 32,2 C 25,6 C 49 % 1025,5 hPa 0,0 l/m 2 min 0 min 804 W/m 12,9 km/h (3 Bft) 97,87 %
19.04.2019 12:22 23,4 C 31,7 C 25,6 C 47 % 1025,5 hPa 0,0 l/m 2 min 0 min 807 W/m 9,7 km/h (2 Bft) 95,74 %
19.04.2019 12:24 23,5 C 31,1 C 26,1 C 47 % 1025,5 hPa 0,0 l/m 2 min 0 min 804 W/m 6,4 km/h (2 Bft) 97,87 %
19.04.2019 12:26 23,6 C 31,7 C 26,7 C 48 % 1025,5 hPa 0,0 l/m 2 min 0 min 808 W/m 9,7 km/h (2 Bft) 97,87 %
19.04.2019 12:28 23,7 C 32,2 C 27,8 C 47 % 1025,4 hPa 0,0 l/m 2 min 0 min 809 W/m 9,7 km/h (2 Bft) 97,87 %
19.04.2019 12:30 23,8 C 31,7 C 26,7 C 47 % 1025,5 hPa 0,0 l/m 2 min 0 min 816 W/m 9,7 km/h (2 Bft) 97,83 %
19.04.2019 12:32 23,9 C 32,2 C 27,2 C 48 % 1025,5 hPa 0,0 l/m 2 min 0 min 817 W/m 9,7 km/h (2 Bft) 97,87 %
19.04.2019 12:34 24,0 C 31,1 C 27,8 C 44 % 1025,4 hPa 0,0 l/m 2 min 0 min 816 W/m 9,7 km/h (2 Bft) 98,31 %
19.04.2019 12:36 24,1 C 31,7 C 28,3 C 47 % 1025,5 hPa 0,0 l/m 2 min 0 min 821 W/m 6,4 km/h (2 Bft) 97,87 %
19.04.2019 12:38 24,1 C 32,2 C 28,9 C 46 % 1025,5 hPa 0,0 l/m 2 min 0 min 823 W/m 12,9 km/h (3 Bft) 100,00 %
19.04.2019 12:40 24,2 C 33,3 C 29,4 C 48 % 1025,5 hPa 0,0 l/m 2 min 0 min 825 W/m 6,4 km/h (2 Bft) 100,00 %
19.04.2019 12:42 24,3 C 32,8 C 30,6 C 46 % 1025,4 hPa 0,0 l/m 2 min 0 min 827 W/m 16,1 km/h (3 Bft) 100,00 %
19.04.2019 12:44 24,4 C 32,2 C 29,4 C 47 % 1025,5 hPa 0,0 l/m 2 min 0 min 830 W/m 12,9 km/h (3 Bft) 100,00 %
19.04.2019 12:46 24,5 C 31,1 C 27,8 C 46 % 1025,5 hPa 0,0 l/m 2 min 0 min 831 W/m 12,9 km/h (3 Bft) 97,87 %
19.04.2019 12:48 24,6 C 31,7 C 27,8 C 45 % 1025,4 hPa 0,0 l/m 2 min 0 min 833 W/m 9,7 km/h (2 Bft) 100,00 %
19.04.2019 12:50 24,6 C 32,2 C 28,9 C 48 % 1025,5 hPa 0,0 l/m 2 min 0 min 834 W/m 9,7 km/h (2 Bft) 100,00 %
19.04.2019 12:52 24,7 C 31,1 C 28,3 C 44 % 1025,5 hPa 0,0 l/m 2 min 0 min 835 W/m 16,1 km/h (3 Bft) 100,00 %
19.04.2019 12:54 24,7 C 30,6 C 27,8 C 44 % 1025,4 hPa 0,0 l/m 2 min 0 min 838 W/m 12,9 km/h (3 Bft) 100,00 %
19.04.2019 12:56 24,7 C 31,7 C 27,8 C 44 % 1025,4 hPa 0,0 l/m 2 min 0 min 838 W/m 6,4 km/h (2 Bft) 97,87 %
19.04.2019 12:58 24,7 C 31,7 C 27,8 C 45 % 1025,4 hPa 0,0 l/m 2 min 0 min 838 W/m 6,4 km/h (2 Bft) 97,87 %
19.04.2019 13:00 24,7 C 32,8 C 30,0 C 48 % 1025,3 hPa 0,0 l/m 2 min 0 min 838 W/m 9,7 km/h (2 Bft) 97,87 %
19.04.2019 13:02 24,8 C 32,8 C 30,6 C 44 % 1025,3 hPa 0,0 l/m 2 min 0 min 840 W/m 9,7 km/h (2 Bft) 100,00 %
19.04.2019 13:04 24,9 C 31,1 C 28,9 C 42 % 1025,3 hPa 0,0 l/m 2 min 0 min 840 W/m 12,9 km/h (3 Bft) 96,55 %
19.04.2019 13:06 24,9 C 29,4 C 28,9 C 41 % 1025,3 hPa 0,0 l/m 2 min 0 min 844 W/m 9,7 km/h (2 Bft) 97,87 %
19.04.2019 13:08 24,9 C 29,4 C 29,4 C 41 % 1025,4 hPa 0,0 l/m 2 min 0 min 846 W/m 9,7 km/h (2 Bft) 97,87 %
19.04.2019 13:10 24,9 C 30,0 C 30,6 C 41 % 1025,3 hPa 0,0 l/m 2 min 0 min 844 W/m 12,9 km/h (3 Bft) 97,14 %
19.04.2019 13:12 24,9 C 29,4 C 31,1 C 40 % 1025,3 hPa 0,0 l/m 2 min 0 min 842 W/m 12,9 km/h (3 Bft) 97,87 %
19.04.2019 13:14 24,8 C 29,4 C 31,1 C 41 % 1025,3 hPa 0,0 l/m 2 min 0 min 842 W/m 12,9 km/h (3 Bft) 97,87 %
19.04.2019 13:16 24,8 C 30,0 C 31,7 C 40 % 1025,3 hPa 0,0 l/m 2 min 0 min 840 W/m 12,9 km/h (3 Bft) 97,83 %
19.04.2019 13:18 24,8 C 31,1 C 32,2 C 39 % 1025,3 hPa 0,0 l/m 2 min 0 min 844 W/m 6,4 km/h (2 Bft) 97,87 %
19.04.2019 13:20 24,8 C 30,0 C 32,2 C 40 % 1025,2 hPa 0,0 l/m 2 min 0 min 847 W/m 16,1 km/h (3 Bft) 97,87 %
19.04.2019 13:22 24,8 C 29,4 C 32,2 C 40 % 1025,3 hPa 0,0 l/m 2 min 0 min 848 W/m 19,3 km/h (3 Bft) 97,87 %
19.04.2019 13:24 24,9 C 29,4 C 32,2 C 40 % 1025,3 hPa 0,0 l/m 2 min 0 min 849 W/m 22,5 km/h (4 Bft) 95,74 %
19.04.2019 13:26 24,9 C 29,4 C 32,2 C 40 % 1025,3 hPa 0,0 l/m 2 min 0 min 851 W/m 16,1 km/h (3 Bft) 95,74 %
19.04.2019 13:28 24,9 C 30,0 C 32,2 C 41 % 1025,3 hPa 0,0 l/m 2 min 0 min 854 W/m 16,1 km/h (3 Bft) 97,83 %
19.04.2019 13:30 24,9 C 29,4 C 32,2 C 40 % 1025,2 hPa 0,0 l/m 2 min 0 min 860 W/m 12,9 km/h (3 Bft) 97,87 %
19.04.2019 13:32 24,9 C 28,3 C 31,1 C 37 % 1025,2 hPa 0,0 l/m 2 min 0 min 857 W/m 22,5 km/h (4 Bft) 97,87 %
19.04.2019 13:34 24,8 C 28,9 C 31,7 C 37 % 1025,2 hPa 0,0 l/m 2 min 0 min 858 W/m 16,1 km/h (3 Bft) 97,87 %
19.04.2019 13:36 24,8 C 28,9 C 31,1 C 37 % 1025,2 hPa 0,0 l/m 2 min 0 min 858 W/m 22,5 km/h (4 Bft) 96,55 %
19.04.2019 13:38 24,8 C 30,0 C 31,7 C 37 % 1025,3 hPa 0,0 l/m 2 min 0 min 855 W/m 9,7 km/h (2 Bft) 95,74 %
19.04.2019 13:40 24,8 C 29,4 C 32,8 C 37 % 1025,2 hPa 0,0 l/m 2 min 0 min 856 W/m 16,1 km/h (3 Bft) 100,00 %
19.04.2019 13:42 24,8 C 29,4 C 32,8 C 37 % 1025,2 hPa 0,0 l/m 2 min 0 min 853 W/m 12,9 km/h (3 Bft) 96,61 %
19.04.2019 13:44 24,8 C 28,9 C 31,7 C 36 % 1025,2 hPa 0,0 l/m 2 min 0 min 853 W/m 19,3 km/h (3 Bft) 97,87 %
19.04.2019 13:46 24,8 C 30,0 C 32,2 C 36 % 1025,3 hPa 0,0 l/m 2 min 0 min 853 W/m 12,9 km/h (3 Bft) 100,00 %
19.04.2019 13:48 24,9 C 29,4 C 32,2 C 35 % 1025,1 hPa 0,0 l/m 2 min 0 min 855 W/m 16,1 km/h (3 Bft) 100,00 %
19.04.2019 13:50 24,9 C 28,9 C 31,7 C 36 % 1025,2 hPa 0,0 l/m 2 min 0 min 855 W/m 12,9 km/h (3 Bft) 100,00 %
19.04.2019 13:52 24,9 C 29,4 C 32,2 C 36 % 1025,2 hPa 0,0 l/m 2 min 0 min 857 W/m 12,9 km/h (3 Bft) 100,00 %
19.04.2019 13:54 24,9 C 28,9 C 31,7 C 36 % 1025,1 hPa 0,0 l/m 2 min 0 min 854 W/m 16,1 km/h (3 Bft) 91,49 %
19.04.2019 13:56 24,9 C 30,0 C 32,8 C 36 % 1025,1 hPa 0,0 l/m 2 min 0 min 853 W/m 9,7 km/h (2 Bft) 97,87 %
19.04.2019 13:58 24,9 C 30,0 C 32,8 C 37 % 1025,1 hPa 0,0 l/m 2 min 0 min 852 W/m 25,7 km/h (4 Bft) 100,00 %
19.04.2019 14:00 25,0 C 28,3 C 31,7 C 34 % 1025,1 hPa 0,0 l/m 2 min 0 min 853 W/m 16,1 km/h (3 Bft) 100,00 %
19.04.2019 14:02 25,0 C 28,9 C 32,2 C 35 % 1025,2 hPa 0,0 l/m 2 min 0 min 851 W/m 16,1 km/h (3 Bft) 97,87 %
19.04.2019 14:04 25,0 C 29,4 C 32,8 C 35 % 1025,1 hPa 0,0 l/m 2 min 0 min 853 W/m 16,1 km/h (3 Bft) 98,28 %
19.04.2019 14:06 25,0 C 28,9 C 32,8 C 34 % 1025,0 hPa 0,0 l/m 2 min 0 min 851 W/m 16,1 km/h (3 Bft) 97,87 %
19.04.2019 14:08 25,0 C 29,4 C 32,2 C 34 % 1025,1 hPa 0,0 l/m 2 min 0 min 851 W/m 9,7 km/h (2 Bft) 100,00 %
19.04.2019 14:10 25,0 C 28,9 C 31,7 C 34 % 1025,1 hPa 0,0 l/m 2 min 0 min 848 W/m 16,1 km/h (3 Bft) 100,00 %
19.04.2019 14:12 25,0 C 29,4 C 32,2 C 34 % 1025,0 hPa 0,0 l/m 2 min 0 min 848 W/m 12,9 km/h (3 Bft) 95,65 %
19.04.2019 14:14 25,1 C 31,1 C 33,3 C 36 % 1025,0 hPa 0,0 l/m 2 min 0 min 846 W/m 16,1 km/h (3 Bft) 95,74 %
19.04.2019 14:16 25,1 C 30,6 C 33,3 C 35 % 1025,0 hPa 0,0 l/m 2 min 0 min 843 W/m 16,1 km/h (3 Bft) 97,87 %
19.04.2019 14:18 25,2 C 31,1 C 33,3 C 36 % 1025,0 hPa 0,0 l/m 2 min 0 min 841 W/m 9,7 km/h (2 Bft) 97,87 %
19.04.2019 14:20 25,2 C 30,0 C 32,2 C 35 % 1025,0 hPa 0,0 l/m 2 min 0 min 838 W/m 9,7 km/h (2 Bft) 97,87 %
19.04.2019 14:22 25,3 C 29,4 C 32,8 C 35 % 1025,0 hPa 0,0 l/m 2 min 0 min 838 W/m 16,1 km/h (3 Bft) 97,83 %
19.04.2019 14:24 25,3 C 28,3 C 31,7 C 34 % 1025,0 hPa 0,0 l/m 2 min 0 min 837 W/m 25,7 km/h (4 Bft) 97,87 %
19.04.2019 14:26 25,2 C 28,9 C 31,7 C 34 % 1025,0 hPa 0,0 l/m 2 min 0 min 837 W/m 12,9 km/h (3 Bft) 97,87 %
19.04.2019 14:28 25,2 C 30,6 C 33,3 C 35 % 1024,9 hPa 0,0 l/m 2 min 0 min 835 W/m 12,9 km/h (3 Bft) 97,87 %
19.04.2019 14:30 25,3 C 30,6 C 33,3 C 35 % 1025,0 hPa 0,0 l/m 2 min 0 min 831 W/m 6,4 km/h (2 Bft) 97,87 %
19.04.2019 14:32 25,3 C 29,4 C 33,3 C 35 % 1025,0 hPa 0,0 l/m 2 min 0 min 830 W/m 12,9 km/h (3 Bft) 97,87 %
19.04.2019 14:34 25,3 C 28,3 C 32,2 C 34 % 1025,0 hPa 0,0 l/m 2 min 0 min 830 W/m 16,1 km/h (3 Bft) 97,83 %
19.04.2019 14:36 25,3 C 29,4 C 32,8 C 35 % 1025,0 hPa 0,0 l/m 2 min 0 min 828 W/m 16,1 km/h (3 Bft) 97,87 %
19.04.2019 14:38 25,3 C 28,9 C 31,7 C 35 % 1024,9 hPa 0,0 l/m 2 min 0 min 824 W/m 16,1 km/h (3 Bft) 97,87 %
19.04.2019 14:40 25,4 C 30,0 C 32,8 C 36 % 1025,0 hPa 0,0 l/m 2 min 0 min 824 W/m 9,7 km/h (2 Bft) 97,14 %
19.04.2019 14:42 25,4 C 29,4 C 32,2 C 35 % 1025,0 hPa 0,0 l/m 2 min 0 min 818 W/m 22,5 km/h (4 Bft) 98,31 %
19.04.2019 14:44 25,4 C 30,0 C 32,2 C 35 % 1024,9 hPa 0,0 l/m 2 min 0 min 819 W/m 16,1 km/h (3 Bft) 97,14 %
19.04.2019 14:46 25,5 C 29,4 C 31,1 C 34 % 1024,9 hPa 0,0 l/m 2 min 0 min 818 W/m 12,9 km/h (3 Bft) 96,55 %
19.04.2019 14:48 25,5 C 29,4 C 30,0 C 34 % 1024,9 hPa 0,0 l/m 2 min 0 min 817 W/m 16,1 km/h (3 Bft) 100,00 %
19.04.2019 14:50 25,5 C 28,9 C 27,8 C 34 % 1024,9 hPa 0,0 l/m 2 min 0 min 816 W/m 22,5 km/h (4 Bft) 100,00 %
19.04.2019 14:52 25,5 C 30,0 C 27,8 C 34 % 1024,9 hPa 0,0 l/m 2 min 0 min 816 W/m 9,7 km/h (2 Bft) 96,61 %
19.04.2019 14:54 25,6 C 29,4 C 27,2 C 33 % 1024,9 hPa 0,0 l/m 2 min 0 min 813 W/m 16,1 km/h (3 Bft) 97,14 %
19.04.2019 14:56 25,6 C 29,4 C 26,7 C 33 % 1024,8 hPa 0,0 l/m 2 min 0 min 812 W/m 16,1 km/h (3 Bft) 98,31 %
19.04.2019 14:58 25,6 C 30,0 C 26,1 C 33 % 1024,9 hPa 0,0 l/m 2 min 0 min 807 W/m 12,9 km/h (3 Bft) 95,65 %
19.04.2019 15:00 25,6 C 28,9 C 26,1 C 34 % 1024,8 hPa 0,0 l/m 2 min 0 min 803 W/m 19,3 km/h (3 Bft) 95,74 %
19.04.2019 15:02 25,6 C 28,9 C 25,6 C 34 % 1024,9 hPa 0,0 l/m 2 min 0 min 800 W/m 29,0 km/h (5 Bft) 95,74 %
19.04.2019 15:04 25,6 C 28,9 C 25,6 C 34 % 1024,9 hPa 0,0 l/m 2 min 0 min 800 W/m 12,9 km/h (3 Bft) 95,74 %
19.04.2019 15:06 25,6 C 28,3 C 25,6 C 33 % 1024,8 hPa 0,0 l/m 2 min 0 min 798 W/m 19,3 km/h (3 Bft) 95,74 %
19.04.2019 15:08 25,6 C 29,4 C 25,6 C 34 % 1024,8 hPa 0,0 l/m 2 min 0 min 794 W/m 12,9 km/h (3 Bft) 97,87 %
19.04.2019 15:10 25,6 C 28,9 C 25,6 C 33 % 1024,8 hPa 0,0 l/m 2 min 0 min 792 W/m 16,1 km/h (3 Bft) 97,83 %
19.04.2019 15:12 25,6 C 29,4 C 25,6 C 33 % 1024,8 hPa 0,0 l/m 2 min 0 min 791 W/m 12,9 km/h (3 Bft) 97,87 %
19.04.2019 15:14 25,6 C 29,4 C 25,6 C 33 % 1024,8 hPa 0,0 l/m 2 min 0 min 788 W/m 12,9 km/h (3 Bft) 94,29 %
19.04.2019 15:16 25,6 C 28,9 C 25,6 C 32 % 1024,7 hPa 0,0 l/m 2 min 0 min 785 W/m 25,7 km/h (4 Bft) 97,87 %
19.04.2019 15:18 25,6 C 28,9 C 25,6 C 33 % 1024,7 hPa 0,0 l/m 2 min 0 min 780 W/m 12,9 km/h (3 Bft) 98,31 %
19.04.2019 15:20 25,6 C 28,3 C 25,6 C 32 % 1024,7 hPa 0,0 l/m 2 min 0 min 777 W/m 32,2 km/h (5 Bft) 97,87 %
19.04.2019 15:22 25,6 C 28,9 C 25,6 C 34 % 1024,8 hPa 0,0 l/m 2 min 0 min 774 W/m 12,9 km/h (3 Bft) 95,65 %
19.04.2019 15:24 25,6 C 28,9 C 25,6 C 32 % 1024,7 hPa 0,0 l/m 2 min 0 min 773 W/m 19,3 km/h (3 Bft) 95,74 %
19.04.2019 15:26 25,6 C 29,4 C 25,6 C 32 % 1024,7 hPa 0,0 l/m 2 min 0 min 770 W/m 16,1 km/h (3 Bft) 97,87 %
19.04.2019 15:28 25,7 C 30,0 C 25,6 C 32 % 1024,7 hPa 0,0 l/m 2 min 0 min 766 W/m 9,7 km/h (2 Bft) 97,87 %
19.04.2019 15:30 25,7 C 30,0 C 25,6 C 32 % 1024,7 hPa 0,0 l/m 2 min 0 min 763 W/m 12,9 km/h (3 Bft) 93,62 %
19.04.2019 15:32 25,7 C 30,0 C 25,6 C 32 % 1024,7 hPa 0,0 l/m 2 min 0 min 758 W/m 12,9 km/h (3 Bft) 95,74 %
19.04.2019 15:34 25,8 C 29,4 C 25,6 C 32 % 1024,7 hPa 0,0 l/m 2 min 0 min 755 W/m 16,1 km/h (3 Bft) 97,83 %
19.04.2019 15:36 25,8 C 29,4 C 25,6 C 32 % 1024,7 hPa 0,0 l/m 2 min 0 min 753 W/m 12,9 km/h (3 Bft) 97,87 %
19.04.2019 15:38 25,8 C 28,3 C 25,0 C 31 % 1024,7 hPa 0,0 l/m 2 min 0 min 749 W/m 19,3 km/h (3 Bft) 93,62 %
19.04.2019 15:40 25,8 C 28,3 C 25,0 C 32 % 1024,5 hPa 0,0 l/m 2 min 0 min 745 W/m 12,9 km/h (3 Bft) 100,00 %
19.04.2019 15:42 25,7 C 28,3 C 25,0 C 32 % 1024,6 hPa 0,0 l/m 2 min 0 min 740 W/m 19,3 km/h (3 Bft) 93,22 %
19.04.2019 15:44 25,7 C 28,3 C 25,0 C 31 % 1024,6 hPa 0,0 l/m 2 min 0 min 736 W/m 12,9 km/h (3 Bft) 95,65 %
19.04.2019 15:46 25,7 C 28,9 C 25,0 C 32 % 1024,6 hPa 0,0 l/m 2 min 0 min 736 W/m 16,1 km/h (3 Bft) 95,74 %
19.04.2019 15:48 25,7 C 28,9 C 25,0 C 32 % 1024,6 hPa 0,0 l/m 2 min 0 min 733 W/m 16,1 km/h (3 Bft) 94,29 %
19.04.2019 15:50 25,7 C 28,9 C 25,6 C 32 % 1024,6 hPa 0,0 l/m 2 min 0 min 728 W/m 19,3 km/h (3 Bft) 96,61 %
19.04.2019 15:52 25,7 C 28,3 C 25,6 C 31 % 1024,7 hPa 0,0 l/m 2 min 0 min 727 W/m 22,5 km/h (4 Bft) 95,74 %
19.04.2019 15:54 25,7 C 28,3 C 25,6 C 31 % 1024,6 hPa 0,0 l/m 2 min 0 min 724 W/m 22,5 km/h (4 Bft) 91,49 %
19.04.2019 15:56 25,7 C 28,9 C 25,6 C 32 % 1024,6 hPa 0,0 l/m 2 min 0 min 720 W/m 9,7 km/h (2 Bft) 97,83 %
19.04.2019 15:58 25,8 C 28,9 C 25,6 C 31 % 1024,6 hPa 0,0 l/m 2 min 0 min 713 W/m 12,9 km/h (3 Bft) 100,00 %
19.04.2019 16:00 25,8 C 28,3 C 25,6 C 31 % 1024,6 hPa 0,0 l/m 2 min 0 min 709 W/m 16,1 km/h (3 Bft) 94,83 %
19.04.2019 16:02 25,8 C 28,3 C 25,0 C 30 % 1024,6 hPa 0,0 l/m 2 min 0 min 707 W/m 12,9 km/h (3 Bft) 97,87 %
19.04.2019 16:04 25,8 C 28,9 C 25,6 C 30 % 1024,6 hPa 0,0 l/m 2 min 0 min 702 W/m 9,7 km/h (2 Bft) 97,14 %
19.04.2019 16:06 25,8 C 28,3 C 25,0 C 30 % 1024,5 hPa 0,0 l/m 2 min 0 min 696 W/m 12,9 km/h (3 Bft) 98,31 %
19.04.2019 16:08 25,8 C 28,9 C 25,6 C 31 % 1024,5 hPa 0,0 l/m 2 min 0 min 692 W/m 9,7 km/h (2 Bft) 97,83 %
19.04.2019 16:10 25,8 C 28,9 C 26,1 C 31 % 1024,5 hPa 0,0 l/m 2 min 0 min 688 W/m 9,7 km/h (2 Bft) 95,74 %
19.04.2019 16:12 25,8 C 30,0 C 28,3 C 33 % 1024,4 hPa 0,0 l/m 2 min 0 min 684 W/m 9,7 km/h (2 Bft) 95,74 %
19.04.2019 16:14 25,8 C 29,4 C 28,3 C 31 % 1024,4 hPa 0,0 l/m 2 min 0 min 680 W/m 16,1 km/h (3 Bft) 97,87 %
19.04.2019 16:16 25,9 C 29,4 C 28,3 C 31 % 1024,5 hPa 0,0 l/m 2 min 0 min 678 W/m 6,4 km/h (2 Bft) 100,00 %
19.04.2019 16:18 25,9 C 30,0 C 27,2 C 32 % 1024,4 hPa 0,0 l/m 2 min 0 min 672 W/m 9,7 km/h (2 Bft) 94,92 %
19.04.2019 16:20 25,9 C 28,9 C 26,1 C 32 % 1024,5 hPa 0,0 l/m 2 min 0 min 666 W/m 16,1 km/h (3 Bft) 100,00 %
19.04.2019 16:22 25,9 C 28,3 C 26,1 C 31 % 1024,5 hPa 0,0 l/m 2 min 0 min 661 W/m 16,1 km/h (3 Bft) 100,00 %
19.04.2019 16:24 25,9 C 28,3 C 25,6 C 30 % 1024,5 hPa 0,0 l/m 2 min 0 min 655 W/m 12,9 km/h (3 Bft) 100,00 %
19.04.2019 16:26 25,9 C 28,9 C 25,6 C 31 % 1024,5 hPa 0,0 l/m 2 min 0 min 652 W/m 9,7 km/h (2 Bft) 98,31 %
19.04.2019 16:28 25,9 C 29,4 C 25,6 C 31 % 1024,5 hPa 0,0 l/m 2 min 0 min 648 W/m 9,7 km/h (2 Bft) 100,00 %
19.04.2019 16:30 25,9 C 29,4 C 25,6 C 32 % 1024,5 hPa 0,0 l/m 2 min 0 min 643 W/m 3,2 km/h (1 Bft) 100,00 %
19.04.2019 16:32 26,0 C 28,9 C 25,6 C 31 % 1024,4 hPa 0,0 l/m 2 min 0 min 637 W/m 9,7 km/h (2 Bft) 100,00 %
19.04.2019 16:34 26,0 C 28,9 C 25,6 C 31 % 1024,4 hPa 0,0 l/m 2 min 0 min 634 W/m 9,7 km/h (2 Bft) 95,74 %
19.04.2019 16:36 26,1 C 29,4 C 26,1 C 35 % 1024,4 hPa 0,0 l/m 2 min 0 min 629 W/m 9,7 km/h (2 Bft) 100,00 %
19.04.2019 16:38 26,1 C 29,4 C 26,7 C 31 % 1024,4 hPa 0,0 l/m 2 min 0 min 624 W/m 6,4 km/h (2 Bft) 100,00 %
19.04.2019 16:40 26,2 C 29,4 C 27,8 C 31 % 1024,4 hPa 0,0 l/m 2 min 0 min 619 W/m 12,9 km/h (3 Bft) 100,00 %
19.04.2019 16:42 26,2 C 28,9 C 28,9 C 31 % 1024,4 hPa 0,0 l/m 2 min 0 min 615 W/m 9,7 km/h (2 Bft) 100,00 %
19.04.2019 16:44 26,2 C 28,3 C 29,4 C 30 % 1024,3 hPa 0,0 l/m 2 min 0 min 610 W/m 12,9 km/h (3 Bft) 98,28 %
19.04.2019 16:46 26,2 C 28,3 C 29,4 C 30 % 1024,4 hPa 0,0 l/m 2 min 0 min 605 W/m 9,7 km/h (2 Bft) 100,00 %
19.04.2019 16:48 26,2 C 28,9 C 28,3 C 30 % 1024,4 hPa 0,0 l/m 2 min 0 min 599 W/m 6,4 km/h (2 Bft) 100,00 %
19.04.2019 16:50 26,2 C 29,4 C 27,2 C 30 % 1024,3 hPa 0,0 l/m 2 min 0 min 594 W/m 3,2 km/h (1 Bft) 100,00 %
19.04.2019 16:52 26,3 C 29,4 C 26,7 C 32 % 1024,4 hPa 0,0 l/m 2 min 0 min 589 W/m 6,4 km/h (2 Bft) 98,31 %
19.04.2019 16:54 26,3 C 29,4 C 26,7 C 31 % 1024,4 hPa 0,0 l/m 2 min 0 min 585 W/m 9,7 km/h (2 Bft) 100,00 %
19.04.2019 16:56 26,4 C 29,4 C 26,7 C 33 % 1024,3 hPa 0,0 l/m 2 min 0 min 580 W/m 6,4 km/h (2 Bft) 97,83 %
19.04.2019 16:58 26,4 C 28,9 C 27,2 C 32 % 1024,4 hPa 0,0 l/m 2 min 0 min 575 W/m 12,9 km/h (3 Bft) 97,87 %
19.04.2019 17:00 26,4 C 28,3 C 28,3 C 31 % 1024,4 hPa 0,0 l/m 2 min 0 min 568 W/m 12,9 km/h (3 Bft) 97,87 %
19.04.2019 17:02 26,4 C 27,8 C 28,3 C 31 % 1024,3 hPa 0,0 l/m 2 min 0 min 564 W/m 9,7 km/h (2 Bft) 100,00 %
19.04.2019 17:04 26,4 C 27,8 C 27,8 C 32 % 1024,2 hPa 0,0 l/m 2 min 0 min 557 W/m 12,9 km/h (3 Bft) 100,00 %
19.04.2019 17:06 26,4 C 27,2 C 26,1 C 31 % 1024,2 hPa 0,0 l/m 2 min 0 min 551 W/m 19,3 km/h (3 Bft) 100,00 %
19.04.2019 17:08 26,3 C 27,2 C 25,6 C 30 % 1024,2 hPa 0,0 l/m 2 min 0 min 545 W/m 16,1 km/h (3 Bft) 97,87 %
19.04.2019 17:10 26,3 C 27,8 C 26,1 C 31 % 1024,2 hPa 0,0 l/m 2 min 0 min 540 W/m 9,7 km/h (2 Bft) 100,00 %
19.04.2019 17:12 26,3 C 27,8 C 26,1 C 30 % 1024,2 hPa 0,0 l/m 2 min 0 min 534 W/m 12,9 km/h (3 Bft) 97,87 %
19.04.2019 17:14 26,3 C 27,2 C 26,1 C 30 % 1024,2 hPa 0,0 l/m 2 min 0 min 529 W/m 16,1 km/h (3 Bft) 97,87 %
19.04.2019 17:16 26,3 C 27,8 C 26,1 C 31 % 1024,1 hPa 0,0 l/m 2 min 0 min 525 W/m 9,7 km/h (2 Bft) 100,00 %
19.04.2019 17:18 26,3 C 27,8 C 26,1 C 30 % 1024,1 hPa 0,0 l/m 2 min 0 min 518 W/m 9,7 km/h (2 Bft) 97,83 %
19.04.2019 17:20 26,3 C 27,8 C 26,1 C 30 % 1024,0 hPa 0,0 l/m 2 min 0 min 512 W/m 16,1 km/h (3 Bft) 100,00 %
19.04.2019 17:22 26,3 C 27,2 C 26,1 C 30 % 1024,0 hPa 0,0 l/m 2 min 0 min 508 W/m 12,9 km/h (3 Bft) 100,00 %
19.04.2019 17:24 26,3 C 27,2 C 25,0 C 29 % 1024,0 hPa 0,0 l/m 2 min 0 min 501 W/m 9,7 km/h (2 Bft) 100,00 %
19.04.2019 17:26 26,2 C 27,2 C 24,4 C 30 % 1024,0 hPa 0,0 l/m 2 min 0 min 496 W/m 6,4 km/h (2 Bft) 100,00 %
19.04.2019 17:28 26,2 C 27,2 C 24,4 C 31 % 1024,0 hPa 0,0 l/m 2 min 0 min 490 W/m 9,7 km/h (2 Bft) 95,74 %
19.04.2019 17:30 26,3 C 27,8 C 24,4 C 33 % 1024,0 hPa 0,0 l/m 2 min 0 min 484 W/m 3,2 km/h (1 Bft) 97,83 %
19.04.2019 17:32 26,3 C 27,8 C 23,9 C 31 % 1024,0 hPa 0,0 l/m 2 min 0 min 478 W/m 6,4 km/h (2 Bft) 97,87 %
19.04.2019 17:34 26,3 C 27,8 C 24,4 C 31 % 1024,0 hPa 0,0 l/m 2 min 0 min 472 W/m 9,7 km/h (2 Bft) 97,87 %
19.04.2019 17:36 26,3 C 27,2 C 23,9 C 30 % 1024,1 hPa 0,0 l/m 2 min 0 min 466 W/m 9,7 km/h (2 Bft) 97,87 %
19.04.2019 17:38 26,3 C 27,2 C 24,4 C 31 % 1024,1 hPa 0,0 l/m 2 min 0 min 461 W/m 9,7 km/h (2 Bft) 97,87 %
19.04.2019 17:40 26,3 C 27,2 C 23,9 C 31 % 1024,1 hPa 0,0 l/m 2 min 0 min 455 W/m 12,9 km/h (3 Bft) 97,87 %
19.04.2019 17:42 26,3 C 27,2 C 23,9 C 31 % 1024,0 hPa 0,0 l/m 2 min 0 min 450 W/m 9,7 km/h (2 Bft) 97,83 %
19.04.2019 17:44 26,3 C 27,2 C 23,9 C 30 % 1024,0 hPa 0,0 l/m 2 min 0 min 443 W/m 12,9 km/h (3 Bft) 97,87 %
19.04.2019 17:46 26,2 C 26,7 C 23,9 C 30 % 1024,1 hPa 0,0 l/m 2 min 0 min 437 W/m 9,7 km/h (2 Bft) 97,14 %
19.04.2019 17:48 26,2 C 26,7 C 23,9 C 31 % 1024,1 hPa 0,0 l/m 2 min 0 min 432 W/m 12,9 km/h (3 Bft) 97,87 %
19.04.2019 17:50 26,2 C 26,7 C 23,3 C 32 % 1024,1 hPa 0,0 l/m 2 min 0 min 425 W/m 12,9 km/h (3 Bft) 98,31 %
19.04.2019 17:52 26,1 C 26,1 C 23,3 C 31 % 1024,1 hPa 0,0 l/m 2 min 0 min 420 W/m 9,7 km/h (2 Bft) 97,87 %
19.04.2019 17:54 26,0 C 26,1 C 23,3 C 30 % 1024,0 hPa 0,0 l/m 2 min 0 min 413 W/m 12,9 km/h (3 Bft) 97,14 %
19.04.2019 17:56 26,0 C 26,1 C 23,3 C 31 % 1024,1 hPa 0,0 l/m 2 min 0 min 408 W/m 6,4 km/h (2 Bft) 98,28 %
19.04.2019 17:58 25,9 C 26,1 C 23,3 C 32 % 1024,1 hPa 0,0 l/m 2 min 0 min 401 W/m 6,4 km/h (2 Bft) 97,87 %
19.04.2019 18:00 25,9 C 26,1 C 23,3 C 30 % 1024,1 hPa 0,0 l/m 2 min 0 min 395 W/m 9,7 km/h (2 Bft) 95,74 %
19.04.2019 18:02 25,9 C 26,1 C 23,3 C 31 % 1024,1 hPa 0,0 l/m 2 min 0 min 389 W/m 9,7 km/h (2 Bft) 97,87 %
19.04.2019 18:04 25,9 C 26,1 C 23,3 C 31 % 1024,1 hPa 0,0 l/m 2 min 0 min 381 W/m 6,4 km/h (2 Bft) 97,87 %
19.04.2019 18:08 25,9 C 26,1 C 22,8 C 33 % 1024,1 hPa 0,0 l/m 4 min 0 min 373 W/m 9,7 km/h (2 Bft) 97,85 %
19.04.2019 18:10 25,9 C 26,1 C 22,8 C 31 % 1024,2 hPa 0,0 l/m 2 min 0 min 366 W/m 9,7 km/h (2 Bft) 95,74 %
19.04.2019 18:12 25,9 C 25,6 C 22,2 C 31 % 1024,1 hPa 0,0 l/m 2 min 0 min 360 W/m 6,4 km/h (2 Bft) 95,74 %
19.04.2019 18:14 25,9 C 26,1 C 22,2 C 31 % 1024,1 hPa 0,0 l/m 2 min 0 min 354 W/m 9,7 km/h (2 Bft) 95,74 %
19.04.2019 18:16 25,9 C 26,1 C 22,2 C 31 % 1024,1 hPa 0,0 l/m 2 min 0 min 349 W/m 6,4 km/h (2 Bft) 95,74 %
19.04.2019 18:18 25,9 C 25,6 C 21,7 C 31 % 1024,2 hPa 0,0 l/m 2 min 0 min 341 W/m 6,4 km/h (2 Bft) 95,65 %
19.04.2019 18:20 25,9 C 25,6 C 21,7 C 31 % 1024,1 hPa 0,0 l/m 2 min 0 min 336 W/m 12,9 km/h (3 Bft) 95,74 %
19.04.2019 18:22 25,9 C 25,0 C 21,7 C 31 % 1024,1 hPa 0,0 l/m 2 min 0 min 330 W/m 9,7 km/h (2 Bft) 93,62 %
19.04.2019 18:24 25,9 C 25,0 C 21,7 C 30 % 1024,1 hPa 0,0 l/m 2 min 0 min 323 W/m 9,7 km/h (2 Bft) 95,74 %
19.04.2019 18:26 25,9 C 25,0 C 21,7 C 32 % 1024,1 hPa 0,0 l/m 2 min 0 min 316 W/m 12,9 km/h (3 Bft) 95,74 %
19.04.2019 18:28 25,8 C 25,0 C 21,7 C 32 % 1024,1 hPa 0,0 l/m 2 min 0 min 309 W/m 9,7 km/h (2 Bft) 95,65 %
19.04.2019 18:30 25,8 C 25,0 C 21,7 C 31 % 1024,1 hPa 0,0 l/m 2 min 0 min 304 W/m 6,4 km/h (2 Bft) 94,44 %
19.04.2019 18:32 25,7 C 24,4 C 21,7 C 31 % 1024,1 hPa 0,0 l/m 2 min 0 min 299 W/m 6,4 km/h (2 Bft) 94,83 %
19.04.2019 18:34 25,7 C 24,4 C 21,1 C 30 % 1024,1 hPa 0,0 l/m 2 min 0 min 294 W/m 12,9 km/h (3 Bft) 93,62 %
19.04.2019 18:36 25,6 C 23,9 C 20,6 C 31 % 1024,1 hPa 0,0 l/m 2 min 0 min 286 W/m 6,4 km/h (2 Bft) 95,74 %
19.04.2019 18:38 25,5 C 23,3 C 20,0 C 33 % 1024,1 hPa 0,0 l/m 2 min 0 min 226 W/m 6,4 km/h (2 Bft) 95,74 %
19.04.2019 18:40 25,4 C 23,3 C 20,0 C 32 % 1024,1 hPa 0,0 l/m 0 min 0 min 113 W/m 6,4 km/h (2 Bft) 95,65 %
19.04.2019 18:42 25,3 C 23,3 C 20,0 C 32 % 1024,1 hPa 0,0 l/m 0 min 0 min 44 W/m 6,4 km/h (2 Bft) 93,62 %
19.04.2019 18:44 25,2 C 23,3 C 20,0 C 34 % 1024,2 hPa 0,0 l/m 0 min 0 min 44 W/m 6,4 km/h (2 Bft) 95,74 %
19.04.2019 18:46 25,1 C 23,3 C 20,0 C 32 % 1024,1 hPa 0,0 l/m 0 min 0 min 43 W/m 6,4 km/h (2 Bft) 95,74 %
19.04.2019 18:48 25,1 C 22,8 C 19,4 C 33 % 1024,1 hPa 0,0 l/m 0 min 0 min 41 W/m 6,4 km/h (2 Bft) 91,49 %
19.04.2019 18:50 24,9 C 23,3 C 19,4 C 32 % 1024,1 hPa 0,0 l/m 0 min 0 min 40 W/m 6,4 km/h (2 Bft) 95,74 %
19.04.2019 18:52 24,9 C 22,8 C 19,4 C 33 % 1024,1 hPa 0,0 l/m 0 min 0 min 40 W/m 6,4 km/h (2 Bft) 94,29 %
19.04.2019 18:54 24,8 C 22,8 C 19,4 C 32 % 1024,1 hPa 0,0 l/m 0 min 0 min 40 W/m 9,7 km/h (2 Bft) 94,83 %
19.04.2019 18:56 24,7 C 22,8 C 19,4 C 32 % 1024,1 hPa 0,0 l/m 0 min 0 min 39 W/m 9,7 km/h (2 Bft) 95,74 %
19.04.2019 18:58 24,7 C 22,8 C 18,9 C 31 % 1024,1 hPa 0,0 l/m 0 min 0 min 39 W/m 6,4 km/h (2 Bft) 93,62 %
19.04.2019 19:00 24,6 C 22,8 C 18,9 C 31 % 1024,1 hPa 0,0 l/m 0 min 0 min 38 W/m 9,7 km/h (2 Bft) 97,87 %
19.04.2019 19:02 24,4 C 22,8 C 18,9 C 31 % 1024,1 hPa 0,0 l/m 0 min 0 min 37 W/m 6,4 km/h (2 Bft) 97,87 %
19.04.2019 19:04 24,4 C 22,2 C 18,9 C 33 % 1024,1 hPa 0,0 l/m 0 min 0 min 37 W/m 3,2 km/h (1 Bft) 97,83 %
19.04.2019 19:06 24,3 C 22,2 C 18,3 C 32 % 1024,1 hPa 0,0 l/m 0 min 0 min 35 W/m 6,4 km/h (2 Bft) 95,74 %
19.04.2019 19:08 24,2 C 22,2 C 18,3 C 32 % 1024,1 hPa 0,0 l/m 0 min 0 min 35 W/m 6,4 km/h (2 Bft) 97,87 %
19.04.2019 19:10 24,1 C 22,2 C 18,9 C 32 % 1024,1 hPa 0,0 l/m 0 min 0 min 34 W/m 6,4 km/h (2 Bft) 97,87 %
19.04.2019 19:12 24,0 C 22,2 C 18,9 C 32 % 1024,2 hPa 0,0 l/m 0 min 0 min 33 W/m 3,2 km/h (1 Bft) 97,87 %
19.04.2019 19:14 23,9 C 22,2 C 18,9 C 33 % 1024,1 hPa 0,0 l/m 0 min 0 min 33 W/m 6,4 km/h (2 Bft) 97,87 %
19.04.2019 19:16 23,9 C 22,2 C 18,9 C 32 % 1024,1 hPa 0,0 l/m 0 min 0 min 33 W/m 6,4 km/h (2 Bft) 97,83 %
19.04.2019 19:18 23,8 C 22,2 C 18,9 C 33 % 1024,1 hPa 0,0 l/m 0 min 0 min 33 W/m 3,2 km/h (1 Bft) 97,87 %
19.04.2019 19:20 23,7 C 22,2 C 18,9 C 33 % 1024,1 hPa 0,0 l/m 0 min 0 min 32 W/m 6,4 km/h (2 Bft) 95,74 %
19.04.2019 19:22 23,7 C 22,2 C 18,3 C 33 % 1024,1 hPa 0,0 l/m 0 min 0 min 32 W/m 3,2 km/h (1 Bft) 94,29 %
19.04.2019 19:24 23,7 C 22,2 C 18,3 C 35 % 1024,1 hPa 0,0 l/m 0 min 0 min 31 W/m 3,2 km/h (1 Bft) 96,61 %
19.04.2019 19:26 23,6 C 22,2 C 18,3 C 34 % 1024,2 hPa 0,0 l/m 0 min 0 min 30 W/m 3,2 km/h (1 Bft) 100,00 %
19.04.2019 19:28 23,6 C 21,7 C 18,3 C 35 % 1024,1 hPa 0,0 l/m 0 min 0 min 30 W/m 6,4 km/h (2 Bft) 100,00 %
19.04.2019 19:30 23,5 C 21,7 C 18,3 C 35 % 1024,2 hPa 0,0 l/m 0 min 0 min 29 W/m 3,2 km/h (1 Bft) 100,00 %
19.04.2019 19:32 23,4 C 21,7 C 17,8 C 35 % 1024,2 hPa 0,0 l/m 0 min 0 min 28 W/m 6,4 km/h (2 Bft) 100,00 %
19.04.2019 19:34 23,3 C 21,1 C 17,8 C 37 % 1024,2 hPa 0,0 l/m 0 min 0 min 28 W/m 9,7 km/h (2 Bft) 95,74 %
19.04.2019 19:36 23,3 C 21,1 C 17,2 C 35 % 1024,2 hPa 0,0 l/m 0 min 0 min 26 W/m 6,4 km/h (2 Bft) 100,00 %
19.04.2019 19:38 23,2 C 21,1 C 17,2 C 35 % 1024,2 hPa 0,0 l/m 0 min 0 min 26 W/m 6,4 km/h (2 Bft) 100,00 %
19.04.2019 19:40 23,2 C 21,1 C 17,2 C 35 % 1024,2 hPa 0,0 l/m 0 min 0 min 26 W/m 3,2 km/h (1 Bft) 100,00 %
19.04.2019 19:42 23,1 C 21,1 C 17,2 C 36 % 1024,3 hPa 0,0 l/m 0 min 0 min 25 W/m 3,2 km/h (1 Bft) 100,00 %
19.04.2019 19:44 23,0 C 21,1 C 17,2 C 36 % 1024,3 hPa 0,0 l/m 0 min 0 min 25 W/m 3,2 km/h (1 Bft) 97,87 %
19.04.2019 19:46 23,0 C 21,1 C 17,2 C 36 % 1024,4 hPa 0,0 l/m 0 min 0 min 25 W/m 6,4 km/h (2 Bft) 100,00 %
19.04.2019 19:48 22,9 C 20,6 C 17,2 C 39 % 1024,4 hPa 0,0 l/m 0 min 0 min 23 W/m 6,4 km/h (2 Bft) 100,00 %
19.04.2019 19:50 22,8 C 20,6 C 16,7 C 38 % 1024,4 hPa 0,0 l/m 0 min 0 min 23 W/m 6,4 km/h (2 Bft) 100,00 %
19.04.2019 19:52 22,7 C 20,6 C 17,2 C 39 % 1024,4 hPa 0,0 l/m 0 min 0 min 23 W/m 3,2 km/h (1 Bft) 100,00 %
19.04.2019 19:54 22,7 C 20,6 C 17,2 C 39 % 1024,4 hPa 0,0 l/m 0 min 0 min 21 W/m 9,7 km/h (2 Bft) 100,00 %
19.04.2019 19:56 22,6 C 20,0 C 16,7 C 40 % 1024,4 hPa 0,0 l/m 0 min 0 min 21 W/m 6,4 km/h (2 Bft) 98,31 %
19.04.2019 19:58 22,5 C 20,0 C 16,7 C 41 % 1024,5 hPa 0,0 l/m 0 min 0 min 20 W/m 6,4 km/h (2 Bft) 100,00 %
19.04.2019 20:00 22,4 C 20,0 C 17,2 C 41 % 1024,6 hPa 0,0 l/m 0 min 0 min 19 W/m 12,9 km/h (3 Bft) 100,00 %
19.04.2019 20:02 22,2 C 19,4 C 16,7 C 43 % 1024,6 hPa 0,0 l/m 0 min 0 min 19 W/m 6,4 km/h (2 Bft) 97,83 %
19.04.2019 20:04 22,1 C 19,4 C 16,7 C 43 % 1024,6 hPa 0,0 l/m 0 min 0 min 18 W/m 9,7 km/h (2 Bft) 100,00 %
19.04.2019 20:06 21,9 C 19,4 C 16,7 C 43 % 1024,6 hPa 0,0 l/m 0 min 0 min 17 W/m 6,4 km/h (2 Bft) 100,00 %
19.04.2019 20:08 21,8 C 19,4 C 16,7 C 42 % 1024,6 hPa 0,0 l/m 0 min 0 min 16 W/m 9,7 km/h (2 Bft) 100,00 %
19.04.2019 20:10 21,7 C 19,4 C 16,7 C 43 % 1024,6 hPa 0,0 l/m 0 min 0 min 15 W/m 9,7 km/h (2 Bft) 100,00 %
19.04.2019 20:12 21,6 C 18,9 C 16,7 C 45 % 1024,6 hPa 0,0 l/m 0 min 0 min 14 W/m 6,4 km/h (2 Bft) 100,00 %
19.04.2019 20:14 21,4 C 18,9 C 16,7 C 44 % 1024,6 hPa 0,0 l/m 0 min 0 min 14 W/m 3,2 km/h (1 Bft) 100,00 %
19.04.2019 20:16 21,4 C 18,9 C 16,1 C 44 % 1024,6 hPa 0,0 l/m 0 min 0 min 12 W/m 6,4 km/h (2 Bft) 100,00 %
19.04.2019 20:18 21,3 C 18,9 C 16,1 C 45 % 1024,6 hPa 0,0 l/m 0 min 0 min 11 W/m 9,7 km/h (2 Bft) 100,00 %
19.04.2019 20:20 21,2 C 18,9 C 16,1 C 44 % 1024,8 hPa 0,0 l/m 0 min 0 min 11 W/m 9,7 km/h (2 Bft) 100,00 %
19.04.2019 20:22 21,1 C 18,9 C 16,1 C 45 % 1024,8 hPa 0,0 l/m 0 min 0 min 10 W/m 9,7 km/h (2 Bft) 100,00 %
19.04.2019 20:24 21,0 C 18,9 C 16,1 C 44 % 1024,9 hPa 0,0 l/m 0 min 0 min 9 W/m 9,7 km/h (2 Bft) 96,61 %
19.04.2019 20:26 20,9 C 18,9 C 16,1 C 44 % 1024,8 hPa 0,0 l/m 0 min 0 min 8 W/m 9,7 km/h (2 Bft) 100,00 %
19.04.2019 20:28 20,8 C 18,9 C 16,1 C 44 % 1024,8 hPa 0,0 l/m 0 min 0 min 7 W/m 6,4 km/h (2 Bft) 97,87 %
19.04.2019 20:30 20,7 C 18,3 C 16,1 C 45 % 1024,9 hPa 0,0 l/m 0 min 0 min 7 W/m 6,4 km/h (2 Bft) 100,00 %
19.04.2019 20:32 20,7 C 18,3 C 16,1 C 45 % 1024,8 hPa 0,0 l/m 0 min 0 min 5 W/m 6,4 km/h (2 Bft) 96,61 %
19.04.2019 20:34 20,6 C 18,3 C 16,1 C 45 % 1024,9 hPa 0,0 l/m 0 min 0 min 5 W/m 6,4 km/h (2 Bft) 97,87 %
19.04.2019 20:36 20,5 C 18,3 C 16,1 C 45 % 1024,9 hPa 0,0 l/m 0 min 0 min 4 W/m 3,2 km/h (1 Bft) 97,87 %
19.04.2019 20:38 20,4 C 18,3 C 16,1 C 45 % 1025,0 hPa 0,0 l/m 0 min 0 min 0 W/m 3,2 km/h (1 Bft) 97,83 %
19.04.2019 20:40 20,3 C 17,8 C 15,6 C 45 % 1025,0 hPa 0,0 l/m 0 min 0 min 0 W/m 3,2 km/h (1 Bft) 97,87 %
19.04.2019 20:42 20,3 C 17,8 C 15,6 C 45 % 1024,9 hPa 0,0 l/m 0 min 0 min 0 W/m 6,4 km/h (2 Bft) 97,14 %
19.04.2019 20:44 20,2 C 17,8 C 15,6 C 46 % 1025,0 hPa 0,0 l/m 0 min 0 min 0 W/m 6,4 km/h (2 Bft) 98,31 %
19.04.2019 20:46 20,1 C 17,8 C 15,6 C 46 % 1025,0 hPa 0,0 l/m 0 min 0 min 0 W/m 3,2 km/h (1 Bft) 95,74 %
19.04.2019 20:48 20,0 C 17,8 C 15,6 C 45 % 1025,0 hPa 0,0 l/m 0 min 0 min 0 W/m 6,4 km/h (2 Bft) 97,87 %
19.04.2019 20:50 19,9 C 17,8 C 15,6 C 45 % 1025,0 hPa 0,0 l/m 0 min 0 min 0 W/m 3,2 km/h (1 Bft) 100,00 %
19.04.2019 20:52 19,9 C 17,8 C 15,6 C 46 % 1025,0 hPa 0,0 l/m 0 min 0 min 0 W/m 0,0 km/h (0 Bft) 96,55 %
19.04.2019 20:54 19,8 C 17,8 C 15,6 C 46 % 1025,1 hPa 0,0 l/m 0 min 0 min 0 W/m 0,0 km/h (0 Bft) 95,74 %
19.04.2019 20:56 19,7 C 17,8 C 15,6 C 46 % 1025,1 hPa 0,0 l/m 0 min 0 min 0 W/m 0,0 km/h (0 Bft) 95,74 %
19.04.2019 20:58 19,7 C 17,8 C 15,0 C 46 % 1025,0 hPa 0,0 l/m 0 min 0 min 0 W/m 0,0 km/h (0 Bft) 95,74 %
19.04.2019 21:00 19,6 C 17,2 C 15,0 C 47 % 1025,1 hPa 0,0 l/m 0 min 0 min 0 W/m 0,0 km/h (0 Bft) 95,74 %
19.04.2019 21:02 19,6 C 17,2 C 15,0 C 46 % 1025,1 hPa 0,0 l/m 0 min 0 min 0 W/m 0,0 km/h (0 Bft) 95,65 %
19.04.2019 21:04 19,5 C 17,2 C 15,0 C 46 % 1025,1 hPa 0,0 l/m 0 min 0 min 0 W/m 0,0 km/h (0 Bft) 95,74 %
19.04.2019 21:06 19,4 C 17,2 C 15,0 C 46 % 1025,1 hPa 0,0 l/m 0 min 0 min 0 W/m 6,4 km/h (2 Bft) 95,74 %
19.04.2019 21:08 19,4 C 17,2 C 15,0 C 46 % 1025,1 hPa 0,0 l/m 0 min 0 min 0 W/m 3,2 km/h (1 Bft) 93,62 %
19.04.2019 21:10 19,3 C 17,2 C 15,0 C 46 % 1025,1 hPa 0,0 l/m 0 min 0 min 0 W/m 3,2 km/h (1 Bft) 95,74 %
19.04.2019 21:12 19,2 C 17,2 C 15,0 C 46 % 1025,2 hPa 0,0 l/m 0 min 0 min 0 W/m 6,4 km/h (2 Bft) 94,29 %
19.04.2019 21:14 19,2 C 17,2 C 15,0 C 47 % 1025,2 hPa 0,0 l/m 0 min 0 min 0 W/m 3,2 km/h (1 Bft) 96,55 %
19.04.2019 21:16 19,1 C 16,7 C 15,0 C 46 % 1025,2 hPa 0,0 l/m 0 min 0 min 0 W/m 3,2 km/h (1 Bft) 97,87 %
19.04.2019 21:18 19,1 C 16,7 C 15,0 C 46 % 1025,2 hPa 0,0 l/m 0 min 0 min 0 W/m 0,0 km/h (0 Bft) 97,87 %
19.04.2019 21:20 19,0 C 16,7 C 15,0 C 47 % 1025,2 hPa 0,0 l/m 0 min 0 min 0 W/m 0,0 km/h (0 Bft) 97,87 %
19.04.2019 21:22 18,9 C 16,7 C 14,4 C 47 % 1025,2 hPa 0,0 l/m 0 min 0 min 0 W/m 3,2 km/h (1 Bft) 97,87 %
19.04.2019 21:24 18,9 C 16,7 C 14,4 C 47 % 1025,3 hPa 0,0 l/m 0 min 0 min 0 W/m 3,2 km/h (1 Bft) 95,74 %
19.04.2019 21:26 18,8 C 16,7 C 14,4 C 47 % 1025,3 hPa 0,0 l/m 0 min 0 min 0 W/m 3,2 km/h (1 Bft) 95,65 %
19.04.2019 21:28 18,8 C 16,7 C 14,4 C 47 % 1025,3 hPa 0,0 l/m 0 min 0 min 0 W/m 3,2 km/h (1 Bft) 97,87 %
19.04.2019 21:30 18,7 C 16,7 C 14,4 C 47 % 1025,3 hPa 0,0 l/m 0 min 0 min 0 W/m 3,2 km/h (1 Bft) 97,87 %
19.04.2019 21:32 18,7 C 16,7 C 14,4 C 47 % 1025,3 hPa 0,0 l/m 0 min 0 min 0 W/m 3,2 km/h (1 Bft) 97,87 %
19.04.2019 21:34 18,6 C 16,1 C 14,4 C 47 % 1025,3 hPa 0,0 l/m 0 min 0 min 0 W/m 6,4 km/h (2 Bft) 97,87 %
19.04.2019 21:36 18,5 C 16,1 C 14,4 C 48 % 1025,4 hPa 0,0 l/m 0 min 0 min 0 W/m 3,2 km/h (1 Bft) 97,83 %
19.04.2019 21:38 18,5 C 16,1 C 14,4 C 48 % 1025,3 hPa 0,0 l/m 0 min 0 min 0 W/m 0,0 km/h (0 Bft) 97,87 %
19.04.2019 21:40 18,4 C 16,1 C 14,4 C 48 % 1025,4 hPa 0,0 l/m 0 min 0 min 0 W/m 0,0 km/h (0 Bft) 97,87 %
19.04.2019 21:42 18,3 C 16,1 C 13,9 C 49 % 1025,4 hPa 0,0 l/m 0 min 0 min 0 W/m 6,4 km/h (2 Bft) 95,74 %
19.04.2019 21:44 18,3 C 16,1 C 13,9 C 49 % 1025,3 hPa 0,0 l/m 0 min 0 min 0 W/m 0,0 km/h (0 Bft) 97,87 %
19.04.2019 21:46 18,2 C 16,1 C 13,9 C 49 % 1025,4 hPa 0,0 l/m 0 min 0 min 0 W/m 0,0 km/h (0 Bft) 100,00 %
19.04.2019 21:48 18,2 C 16,1 C 13,9 C 49 % 1025,3 hPa 0,0 l/m 0 min 0 min 0 W/m 0,0 km/h (0 Bft) 97,83 %
19.04.2019 21:50 18,1 C 16,1 C 13,9 C 49 % 1025,3 hPa 0,0 l/m 0 min 0 min 0 W/m 0,0 km/h (0 Bft) 100,00 %
19.04.2019 21:52 18,1 C 16,1 C 13,9 C 49 % 1025,3 hPa 0,0 l/m 0 min 0 min 0 W/m 3,2 km/h (1 Bft) 100,00 %
19.04.2019 21:54 18,0 C 16,1 C 13,9 C 49 % 1025,4 hPa 0,0 l/m 0 min 0 min 0 W/m 3,2 km/h (1 Bft) 100,00 %
19.04.2019 21:56 17,9 C 16,1 C 13,9 C 49 % 1025,4 hPa 0,0 l/m 0 min 0 min 0 W/m 3,2 km/h (1 Bft) 100,00 %
19.04.2019 21:58 17,9 C 16,1 C 13,9 C 49 % 1025,4 hPa 0,0 l/m 0 min 0 min 0 W/m 3,2 km/h (1 Bft) 95,74 %
19.04.2019 22:00 17,8 C 16,1 C 13,9 C 50 % 1025,3 hPa 0,0 l/m 0 min 0 min 0 W/m 9,7 km/h (2 Bft) 97,83 %
19.04.2019 22:02 17,8 C 15,6 C 13,9 C 50 % 1025,4 hPa 0,0 l/m 0 min 0 min 0 W/m 3,2 km/h (1 Bft) 94,29 %
19.04.2019 22:04 17,7 C 15,6 C 13,9 C 50 % 1025,4 hPa 0,0 l/m 0 min 0 min 0 W/m 3,2 km/h (1 Bft) 98,31 %
19.04.2019 22:06 17,7 C 15,6 C 13,9 C 50 % 1025,3 hPa 0,0 l/m 0 min 0 min 0 W/m 3,2 km/h (1 Bft) 97,87 %
19.04.2019 22:08 17,7 C 16,1 C 13,9 C 50 % 1025,4 hPa 0,0 l/m 0 min 0 min 0 W/m 3,2 km/h (1 Bft) 97,87 %
19.04.2019 22:10 17,6 C 15,6 C 13,9 C 50 % 1025,4 hPa 0,0 l/m 0 min 0 min 0 W/m 3,2 km/h (1 Bft) 97,87 %
19.04.2019 22:12 17,6 C 15,6 C 13,9 C 51 % 1025,5 hPa 0,0 l/m 0 min 0 min 0 W/m 3,2 km/h (1 Bft) 95,65 %
19.04.2019 22:14 17,5 C 15,6 C 13,9 C 51 % 1025,5 hPa 0,0 l/m 0 min 0 min 0 W/m 3,2 km/h (1 Bft) 97,87 %
19.04.2019 22:16 17,4 C 15,6 C 13,3 C 51 % 1025,5 hPa 0,0 l/m 0 min 0 min 0 W/m 0,0 km/h (0 Bft) 97,87 %
19.04.2019 22:18 17,4 C 15,6 C 13,3 C 51 % 1025,5 hPa 0,0 l/m 0 min 0 min 0 W/m 0,0 km/h (0 Bft) 97,87 %
19.04.2019 22:20 17,4 C 15,6 C 13,9 C 51 % 1025,5 hPa 0,0 l/m 0 min 0 min 0 W/m 0,0 km/h (0 Bft) 95,74 %
19.04.2019 22:22 17,3 C 15,6 C 13,9 C 51 % 1025,5 hPa 0,0 l/m 0 min 0 min 0 W/m 0,0 km/h (0 Bft) 97,83 %
19.04.2019 22:24 17,3 C 15,6 C 13,3 C 51 % 1025,6 hPa 0,0 l/m 0 min 0 min 0 W/m 0,0 km/h (0 Bft) 97,87 %
19.04.2019 22:26 17,2 C 15,6 C 13,3 C 51 % 1025,6 hPa 0,0 l/m 0 min 0 min 0 W/m 0,0 km/h (0 Bft) 97,14 %
19.04.2019 22:28 17,2 C 15,6 C 13,3 C 51 % 1025,6 hPa 0,0 l/m 0 min 0 min 0 W/m 0,0 km/h (0 Bft) 96,61 %
19.04.2019 22:30 17,2 C 15,0 C 13,3 C 51 % 1025,6 hPa 0,0 l/m 0 min 0 min 0 W/m 0,0 km/h (0 Bft) 97,87 %
19.04.2019 22:32 17,1 C 15,0 C 13,3 C 52 % 1025,6 hPa 0,0 l/m 0 min 0 min 0 W/m 0,0 km/h (0 Bft) 97,87 %
19.04.2019 22:34 17,1 C 15,0 C 12,8 C 51 % 1025,7 hPa 0,0 l/m 0 min 0 min 0 W/m 0,0 km/h (0 Bft) 97,83 %
19.04.2019 22:36 17,0 C 14,4 C 12,8 C 51 % 1025,7 hPa 0,0 l/m 0 min 0 min 0 W/m 0,0 km/h (0 Bft) 97,87 %
19.04.2019 22:38 17,0 C 14,4 C 12,8 C 51 % 1025,7 hPa 0,0 l/m 0 min 0 min 0 W/m 0,0 km/h (0 Bft) 97,87 %
19.04.2019 22:40 16,9 C 13,9 C 12,8 C 52 % 1025,7 hPa 0,0 l/m 0 min 0 min 0 W/m 0,0 km/h (0 Bft) 95,74 %
19.04.2019 22:42 16,9 C 13,9 C 12,2 C 53 % 1025,7 hPa 0,0 l/m 0 min 0 min 0 W/m 0,0 km/h (0 Bft) 95,74 %
19.04.2019 22:44 16,8 C 13,9 C 12,2 C 53 % 1025,7 hPa 0,0 l/m 0 min 0 min 0 W/m 0,0 km/h (0 Bft) 97,87 %
19.04.2019 22:46 16,8 C 13,9 C 12,2 C 53 % 1025,7 hPa 0,0 l/m 0 min 0 min 0 W/m 0,0 km/h (0 Bft) 93,48 %
19.04.2019 22:48 16,7 C 13,9 C 12,2 C 53 % 1025,7 hPa 0,0 l/m 0 min 0 min 0 W/m 0,0 km/h (0 Bft) 95,74 %
19.04.2019 22:50 16,6 C 13,9 C 12,2 C 53 % 1025,8 hPa 0,0 l/m 0 min 0 min 0 W/m 0,0 km/h (0 Bft) 95,74 %
19.04.2019 22:52 16,6 C 13,9 C 12,2 C 53 % 1025,8 hPa 0,0 l/m 0 min 0 min 0 W/m 0,0 km/h (0 Bft) 95,74 %
19.04.2019 22:54 16,5 C 13,9 C 12,2 C 53 % 1025,8 hPa 0,0 l/m 0 min 0 min 0 W/m 0,0 km/h (0 Bft) 91,43 %
19.04.2019 22:56 16,4 C 13,3 C 11,7 C 53 % 1025,9 hPa 0,0 l/m 0 min 0 min 0 W/m 0,0 km/h (0 Bft) 94,92 %
19.04.2019 22:58 16,4 C 13,3 C 11,7 C 53 % 1025,9 hPa 0,0 l/m 0 min 0 min 0 W/m 0,0 km/h (0 Bft) 95,65 %
19.04.2019 23:00 16,3 C 13,3 C 11,7 C 54 % 1025,8 hPa 0,0 l/m 0 min 0 min 0 W/m 0,0 km/h (0 Bft) 94,29 %
19.04.2019 23:02 16,2 C 13,3 C 11,7 C 54 % 1025,8 hPa 0,0 l/m 0 min 0 min 0 W/m 0,0 km/h (0 Bft) 94,92 %
19.04.2019 23:04 16,2 C 12,8 C 11,7 C 54 % 1025,9 hPa 0,0 l/m 0 min 0 min 0 W/m 0,0 km/h (0 Bft) 93,62 %
19.04.2019 23:06 16,1 C 12,8 C 11,7 C 54 % 1025,9 hPa 0,0 l/m 0 min 0 min 0 W/m 0,0 km/h (0 Bft) 97,87 %
19.04.2019 23:08 16,0 C 12,8 C 11,1 C 54 % 1025,9 hPa 0,0 l/m 0 min 0 min 0 W/m 0,0 km/h (0 Bft) 95,74 %
19.04.2019 23:10 15,9 C 12,8 C 11,1 C 55 % 1025,9 hPa 0,0 l/m 0 min 0 min 0 W/m 0,0 km/h (0 Bft) 97,83 %
19.04.2019 23:12 15,8 C 12,8 C 11,1 C 55 % 1025,9 hPa 0,0 l/m 0 min 0 min 0 W/m 0,0 km/h (0 Bft) 97,14 %
19.04.2019 23:14 15,8 C 12,8 C 11,1 C 55 % 1025,9 hPa 0,0 l/m 0 min 0 min 0 W/m 0,0 km/h (0 Bft) 96,61 %
19.04.2019 23:16 15,7 C 12,8 C 11,1 C 55 % 1026,0 hPa 0,0 l/m 0 min 0 min 0 W/m 0,0 km/h (0 Bft) 95,74 %
19.04.2019 23:18 15,6 C 12,2 C 11,1 C 56 % 1025,9 hPa 0,0 l/m 0 min 0 min 0 W/m 0,0 km/h (0 Bft) 97,87 %
19.04.2019 23:20 15,5 C 12,2 C 11,1 C 56 % 1026,0 hPa 0,0 l/m 0 min 0 min 0 W/m 0,0 km/h (0 Bft) 97,14 %
19.04.2019 23:22 15,4 C 12,2 C 11,1 C 56 % 1025,9 hPa 0,0 l/m 0 min 0 min 0 W/m 0,0 km/h (0 Bft) 98,28 %
19.04.2019 23:24 15,4 C 12,8 C 11,1 C 56 % 1026,0 hPa 0,0 l/m 0 min 0 min 0 W/m 0,0 km/h (0 Bft) 100,00 %
19.04.2019 23:26 15,3 C 12,8 C 11,1 C 56 % 1026,0 hPa 0,0 l/m 0 min 0 min 0 W/m 0,0 km/h (0 Bft) 100,00 %
19.04.2019 23:28 15,2 C 12,8 C 11,1 C 56 % 1026,0 hPa 0,0 l/m 0 min 0 min 0 W/m 0,0 km/h (0 Bft) 98,31 %
19.04.2019 23:30 15,2 C 12,8 C 11,1 C 57 % 1026,0 hPa 0,0 l/m 0 min 0 min 0 W/m 0,0 km/h (0 Bft) 100,00 %
19.04.2019 23:32 15,1 C 12,8 C 11,1 C 57 % 1026,0 hPa 0,0 l/m 0 min 0 min 0 W/m 0,0 km/h (0 Bft) 100,00 %
19.04.2019 23:34 15,0 C 12,8 C 11,1 C 57 % 1026,0 hPa 0,0 l/m 0 min 0 min 0 W/m 0,0 km/h (0 Bft) 95,74 %
19.04.2019 23:36 14,9 C 13,3 C 11,1 C 57 % 1026,0 hPa 0,0 l/m 0 min 0 min 0 W/m 0,0 km/h (0 Bft) 100,00 %
19.04.2019 23:38 14,9 C 13,3 C 11,1 C 57 % 1026,0 hPa 0,0 l/m 0 min 0 min 0 W/m 0,0 km/h (0 Bft) 100,00 %
19.04.2019 23:40 14,8 C 13,3 C 11,1 C 58 % 1026,0 hPa 0,0 l/m 0 min 0 min 0 W/m 0,0 km/h (0 Bft) 100,00 %
19.04.2019 23:42 14,8 C 13,3 C 11,1 C 58 % 1026,1 hPa 0,0 l/m 0 min 0 min 0 W/m 0,0 km/h (0 Bft) 100,00 %
19.04.2019 23:44 14,7 C 13,3 C 11,1 C 58 % 1026,1 hPa 0,0 l/m 0 min 0 min 0 W/m 0,0 km/h (0 Bft) 100,00 %
19.04.2019 23:46 14,7 C 13,3 C 11,1 C 58 % 1026,0 hPa 0,0 l/m 0 min 0 min 0 W/m 0,0 km/h (0 Bft) 94,83 %
19.04.2019 23:48 14,7 C 13,3 C 11,1 C 58 % 1026,1 hPa 0,0 l/m 0 min 0 min 0 W/m 0,0 km/h (0 Bft) 100,00 %
19.04.2019 23:50 14,6 C 13,3 C 11,1 C 59 % 1026,1 hPa 0,0 l/m 0 min 0 min 0 W/m 0,0 km/h (0 Bft) 97,87 %
19.04.2019 23:52 14,6 C 13,3 C 11,1 C 59 % 1026,0 hPa 0,0 l/m 0 min 0 min 0 W/m 0,0 km/h (0 Bft) 100,00 %
19.04.2019 23:54 14,6 C 12,8 C 11,1 C 58 % 1026,0 hPa 0,0 l/m 0 min 0 min 0 W/m 0,0 km/h (0 Bft) 100,00 %
19.04.2019 23:56 14,5 C 12,8 C 11,1 C 59 % 1026,1 hPa 0,0 l/m 0 min 0 min 0 W/m 0,0 km/h (0 Bft) 100,00 %
19.04.2019 23:58 14,5 C 12,8 C 11,1 C 59 % 1026,1 hPa 0,0 l/m 0 min 0 min 0 W/m 0,0 km/h (0 Bft) 100,00 %
_ Min-Zeit 06:20 05:28 05:52 17:24 00:00 - - - - 01:16 10:32
Minimum _ 8,3 C 7,2 C 5,6 C 29 % 1023,5 hPa - - - - 0,0 km/h (0 Bft) 91,30 %
_ Max-Zeit 16:56 12:40 14:14 07:16 10:26 00:00 12:08 00:00 13:30 15:20 00:20
Maximum _ 26,4 C 33,3 C 33,3 C 78 % 1026,2 hPa 0,0 l/m 4 min 0 min 860 W/m 32,2 km/h
O-SO (5 Bft)
100,00 %
Durchschnitt _ 17,6 C 18,6 C 16,8 C 53 % 1024,9 hPa #0,0 l/m #8:28 h #0 min. 426 W/m 6,2 km/h (2 Bft) 97,52 %
© 2019 W. Hausmann